Today

Time Wind Dr Wind Spd
mph
Wind Gust
mph
Hum In
%
Humid
%
TempI
F
Temp
F
Raw Bar
in
Tot Rain
in
UV Solar
W/sqm
DailyRain
in
HourRain
in
24HrRain
in
RainRate
in
08/20/19 12:00:37 AM 32 0.0 0.0 51 61 76.4 70.2 29.920 20.14 0.0 0 0.00 0.00 0.00 0.00
08/20/19 12:01:36 AM 32 0.0 0.0 51 62 76.4 70.2 29.922 20.14 0.0 0 0.00 0.00 0.00 0.00
08/20/19 12:02:29 AM 32 0.0 0.0 51 62 76.4 70.1 29.922 20.14 0.0 0 0.00 0.00 0.00 0.00
08/20/19 12:03:20 AM 32 0.0 0.0 51 62 76.4 70.1 29.922 20.14 0.0 0 0.00 0.00 0.00 0.00
08/20/19 12:04:32 AM 32 0.0 0.0 51 62 76.4 70.1 29.923 20.14 0.0 0 0.00 0.00 0.00 0.00
08/20/19 12:05:25 AM 32 0.0 0.0 51 62 76.4 70.1 29.923 20.14 0.0 0 0.00 0.00 0.00 0.00
08/20/19 12:06:18 AM 32 0.0 0.0 51 62 76.4 70.0 29.923 20.14 0.0 0 0.00 0.00 0.00 0.00
08/20/19 12:07:30 AM 32 0.0 0.0 51 63 76.4 70.0 29.922 20.14 0.0 0 0.00 0.00 0.00 0.00
08/20/19 12:08:23 AM 32 0.0 0.0 51 63 76.4 69.9 29.922 20.14 0.0 0 0.00 0.00 0.00 0.00
08/20/19 12:09:35 AM 32 0.0 0.0 51 63 76.4 69.9 29.918 20.14 0.0 0 0.00 0.00 0.00 0.00
08/20/19 12:10:25 AM 32 0.0 0.0 51 63 76.4 69.9 29.918 20.14 0.0 0 0.00 0.00 0.00 0.00
08/20/19 12:11:15 AM 32 0.0 0.0 51 63 76.4 69.9 29.919 20.14 0.0 0 0.00 0.00 0.00 0.00
08/20/19 12:12:30 AM 32 0.0 0.0 51 64 76.4 69.8 29.917 20.14 0.0 0 0.00 0.00 0.00 0.00
08/20/19 12:13:23 AM 32 0.0 0.0 51 64 76.4 69.8 29.917 20.14 0.0 0 0.00 0.00 0.00 0.00
08/20/19 12:14:35 AM 32 0.0 0.0 51 64 76.4 69.7 29.916 20.14 0.0 0 0.00 0.00 0.00 0.00
08/20/19 12:15:25 AM 32 0.0 0.0 51 64 76.4 69.7 29.916 20.14 0.0 0 0.00 0.00 0.00 0.00
08/20/19 12:16:15 AM 32 0.0 0.0 51 64 76.4 69.7 29.915 20.14 0.0 0 0.00 0.00 0.00 0.00
08/20/19 12:17:30 AM 32 0.0 0.0 51 65 76.4 69.6 29.916 20.14 0.0 0 0.00 0.00 0.00 0.00
08/20/19 12:18:23 AM 32 0.0 0.0 51 65 76.4 69.6 29.916 20.14 0.0 0 0.00 0.00 0.00 0.00
08/20/19 12:19:35 AM 32 0.0 0.0 51 65 76.4 69.5 29.917 20.14 0.0 0 0.00 0.00 0.00 0.00
08/20/19 12:20:28 AM 32 0.0 0.0 51 65 76.4 69.4 29.917 20.14 0.0 0 0.00 0.00 0.00 0.00
08/20/19 12:21:16 AM 32 0.0 0.0 51 65 76.4 69.4 29.917 20.14 0.0 0 0.00 0.00 0.00 0.00
08/20/19 12:22:30 AM 32 0.0 0.0 51 66 76.4 69.4 29.919 20.14 0.0 0 0.00 0.00 0.00 0.00
08/20/19 12:23:21 AM 32 0.0 0.0 51 66 76.4 69.3 29.919 20.14 0.0 0 0.00 0.00 0.00 0.00
08/20/19 12:24:35 AM 32 0.0 0.0 51 66 76.4 69.3 29.916 20.14 0.0 0 0.00 0.00 0.00 0.00
08/20/19 12:25:28 AM 31 0.0 0.0 51 66 76.4 69.2 29.919 20.14 0.0 0 0.00 0.00 0.00 0.00
08/20/19 12:26:37 AM 31 0.0 0.0 51 67 76.4 69.2 29.916 20.14 0.0 0 0.00 0.00 0.00 0.00
08/20/19 12:27:30 AM 31 0.0 0.0 51 67 76.4 69.1 29.919 20.14 0.0 0 0.00 0.00 0.00 0.00
08/20/19 12:28:24 AM 32 0.0 0.0 51 67 76.4 69.1 29.919 20.14 0.0 0 0.00 0.00 0.00 0.00
08/20/19 12:29:35 AM 32 0.0 0.0 51 67 76.4 69.0 29.917 20.14 0.0 0 0.00 0.00 0.00 0.00
08/20/19 12:30:29 AM 32 0.0 0.0 51 67 76.4 69.0 29.918 20.14 0.0 0 0.00 0.00 0.00 0.00
08/20/19 12:31:19 AM 32 0.0 0.0 51 67 76.4 69.0 29.918 20.14 0.0 0 0.00 0.00 0.00 0.00
08/20/19 12:32:31 AM 31 0.0 0.0 51 67 76.4 69.0 29.919 20.14 0.0 0 0.00 0.00 0.00 0.00
08/20/19 12:33:21 AM 32 0.0 0.0 51 68 76.4 68.9 29.919 20.14 0.0 0 0.00 0.00 0.00 0.00
08/20/19 12:34:36 AM 31 0.0 0.0 51 68 76.4 68.9 29.920 20.14 0.0 0 0.00 0.00 0.00 0.00
08/20/19 12:35:29 AM 32 0.0 0.0 51 68 76.4 68.9 29.924 20.14 0.0 0 0.00 0.00 0.00 0.00
08/20/19 12:36:22 AM 32 0.0 0.0 51 68 76.4 68.8 29.924 20.14 0.0 0 0.00 0.00 0.00 0.00
08/20/19 12:37:31 AM 32 0.0 0.0 51 67 76.4 68.8 29.919 20.14 0.0 0 0.00 0.00 0.00 0.00
08/20/19 12:38:24 AM 32 0.0 0.0 51 67 76.4 68.8 29.919 20.14 0.0 0 0.00 0.00 0.00 0.00
08/20/19 12:39:36 AM 32 0.0 0.0 51 67 76.4 68.7 29.920 20.14 0.0 0 0.00 0.00 0.00 0.00
08/20/19 12:40:29 AM 32 0.0 0.0 51 67 76.4 68.7 29.919 20.14 0.0 0 0.00 0.00 0.00 0.00
08/20/19 12:41:23 AM 32 0.0 0.0 51 67 76.4 68.6 29.919 20.14 0.0 0 0.00 0.00 0.00 0.00
08/20/19 12:42:31 AM 32 0.0 0.0 51 67 76.4 68.6 29.919 20.14 0.0 0 0.00 0.00 0.00 0.00
08/20/19 12:43:25 AM 32 0.0 0.0 51 67 76.4 68.5 29.919 20.14 0.0 0 0.00 0.00 0.00 0.00
08/20/19 12:44:36 AM 32 0.0 0.0 51 67 76.4 68.5 29.921 20.14 0.0 0 0.00 0.00 0.00 0.00
08/20/19 12:45:30 AM 32 0.0 0.0 51 67 76.4 68.5 29.921 20.14 0.0 0 0.00 0.00 0.00 0.00
08/20/19 12:46:23 AM 31 0.0 0.0 51 67 76.4 68.5 29.921 20.14 0.0 0 0.00 0.00 0.00 0.00
08/20/19 12:47:35 AM 32 0.0 0.0 51 67 76.4 68.4 29.924 20.14 0.0 0 0.00 0.00 0.00 0.00
08/20/19 12:48:25 AM 32 0.0 0.0 51 67 76.4 68.4 29.924 20.14 0.0 0 0.00 0.00 0.00 0.00
08/20/19 12:49:18 AM 31 0.0 0.0 51 67 76.4 68.4 29.921 20.14 0.0 0 0.00 0.00 0.00 0.00
08/20/19 12:50:30 AM 32 0.0 0.0 51 67 76.4 68.3 29.919 20.14 0.0 0 0.00 0.00 0.00 0.00
08/20/19 12:51:23 AM 32 0.0 0.0 51 67 76.4 68.3 29.919 20.14 0.0 0 0.00 0.00 0.00 0.00
08/20/19 12:52:35 AM 32 0.0 0.0 51 67 76.4 68.3 29.923 20.14 0.0 0 0.00 0.00 0.00 0.00
08/20/19 12:53:25 AM 32 0.0 0.0 51 67 76.4 68.2 29.923 20.14 0.0 0 0.00 0.00 0.00 0.00
08/20/19 12:54:18 AM 32 0.0 0.0 51 67 76.4 68.2 29.920 20.14 0.0 0 0.00 0.00 0.00 0.00
08/20/19 12:55:33 AM 31 0.0 0.0 51 67 76.4 68.1 29.921 20.14 0.0 0 0.00 0.00 0.00 0.00
08/20/19 12:56:23 AM 31 0.0 0.0 51 67 76.4 68.1 29.921 20.14 0.0 0 0.00 0.00 0.00 0.00
08/20/19 12:57:35 AM 32 0.0 0.0 51 67 76.4 68.1 29.921 20.14 0.0 0 0.00 0.00 0.00 0.00
08/20/19 12:58:28 AM 32 0.0 0.0 51 67 76.4 68.0 29.923 20.14 0.0 0 0.00 0.00 0.00 0.00
08/20/19 12:59:19 AM 32 0.0 0.0 51 68 76.4 68.0 29.923 20.14 0.0 0 0.00 0.00 0.00 0.00
08/20/19 1:00:30 AM 32 0.0 0.0 51 68 76.4 68.0 29.922 20.14 0.0 0 0.00 0.00 0.00 0.00
08/20/19 1:01:24 AM 32 0.0 0.0 51 68 76.4 67.9 29.922 20.14 0.0 0 0.00 0.00 0.00 0.00
08/20/19 1:02:35 AM 32 0.0 0.0 51 68 76.4 67.8 29.921 20.14 0.0 0 0.00 0.00 0.00 0.00
08/20/19 1:03:29 AM 32 0.0 0.0 51 68 76.4 67.8 29.921 20.14 0.0 0 0.00 0.00 0.00 0.00
08/20/19 1:04:16 AM 32 0.0 0.0 51 68 76.4 67.8 29.921 20.14 0.0 0 0.00 0.00 0.00 0.00
08/20/19 1:05:31 AM 32 0.0 0.0 51 68 76.4 67.7 29.921 20.14 0.0 0 0.00 0.00 0.00 0.00
08/20/19 1:06:24 AM 31 0.0 0.0 51 68 76.4 67.7 29.921 20.14 0.0 0 0.00 0.00 0.00 0.00
08/20/19 1:07:36 AM 32 0.0 0.0 51 69 76.4 67.7 29.920 20.14 0.0 0 0.00 0.00 0.00 0.00
08/20/19 1:08:29 AM 32 0.0 0.0 51 69 76.4 67.7 29.921 20.14 0.0 0 0.00 0.00 0.00 0.00
08/20/19 1:09:23 AM 32 0.0 0.0 51 69 76.4 67.7 29.921 20.14 0.0 0 0.00 0.00 0.00 0.00
08/20/19 1:10:31 AM 32 0.0 0.0 51 69 76.4 67.7 29.920 20.14 0.0 0 0.00 0.00 0.00 0.00
08/20/19 1:11:25 AM 32 0.0 0.0 51 69 76.4 67.7 29.920 20.14 0.0 0 0.00 0.00 0.00 0.00
08/20/19 1:12:15 AM 32 0.0 0.0 51 69 76.4 67.7 29.921 20.14 0.0 0 0.00 0.00 0.00 0.00
08/20/19 1:13:30 AM 32 0.0 0.0 51 69 76.4 67.6 29.921 20.14 0.0 0 0.00 0.00 0.00 0.00
08/20/19 1:14:23 AM 32 0.0 0.0 51 69 76.4 67.6 29.921 20.14 0.0 0 0.00 0.00 0.00 0.00
08/20/19 1:15:32 AM 32 0.0 0.0 51 69 76.4 67.6 29.921 20.14 0.0 0 0.00 0.00 0.00 0.00
08/20/19 1:16:26 AM 31 0.0 0.0 51 69 76.4 67.6 29.921 20.14 0.0 0 0.00 0.00 0.00 0.00
08/20/19 1:17:16 AM 32 0.0 0.0 51 69 76.3 67.6 29.919 20.14 0.0 0 0.00 0.00 0.00 0.00
08/20/19 1:18:31 AM 32 0.0 0.0 51 69 76.3 67.6 29.919 20.14 0.0 0 0.00 0.00 0.00 0.00
08/20/19 1:19:24 AM 32 0.0 0.0 51 69 76.3 67.5 29.919 20.14 0.0 0 0.00 0.00 0.00 0.00
08/20/19 1:20:33 AM 32 0.0 0.0 51 69 76.3 67.5 29.919 20.14 0.0 0 0.00 0.00 0.00 0.00
08/20/19 1:21:24 AM 31 0.0 0.0 51 69 76.3 67.5 29.919 20.14 0.0 0 0.00 0.00 0.00 0.00
08/20/19 1:22:17 AM 32 0.0 0.0 51 69 76.3 67.5 29.918 20.14 0.0 0 0.00 0.00 0.00 0.00
08/20/19 1:23:32 AM 32 0.0 0.0 51 69 76.3 67.4 29.918 20.14 0.0 0 0.00 0.00 0.00 0.00
08/20/19 1:24:22 AM 32 0.0 0.0 51 69 76.3 67.4 29.918 20.14 0.0 0 0.00 0.00 0.00 0.00
08/20/19 1:25:37 AM 32 0.0 0.0 51 69 76.3 67.3 29.919 20.14 0.0 0 0.00 0.00 0.00 0.00
08/20/19 1:26:28 AM 32 0.0 0.0 51 69 76.3 67.3 29.921 20.14 0.0 0 0.00 0.00 0.00 0.00
08/20/19 1:27:18 AM 32 0.0 0.0 51 69 76.3 67.3 29.921 20.14 0.0 0 0.00 0.00 0.00 0.00
08/20/19 1:28:33 AM 32 0.0 0.0 51 69 76.3 67.2 29.919 20.14 0.0 0 0.00 0.00 0.00 0.00
08/20/19 1:29:23 AM 32 0.0 0.0 51 69 76.3 67.2 29.919 20.14 0.0 0 0.00 0.00 0.00 0.00
08/20/19 1:30:17 AM 32 0.0 0.0 51 69 76.3 67.2 29.919 20.14 0.0 0 0.00 0.00 0.00 0.00
08/20/19 1:31:25 AM 32 0.0 0.0 51 69 76.2 67.1 29.920 20.14 0.0 0 0.00 0.00 0.00 0.00
08/20/19 1:32:19 AM 32 0.0 0.0 51 69 76.2 67.1 29.920 20.14 0.0 0 0.00 0.00 0.00 0.00
08/20/19 1:33:30 AM 32 0.0 0.0 51 69 76.2 67.0 29.920 20.14 0.0 0 0.00 0.00 0.00 0.00
08/20/19 1:34:24 AM 31 0.0 0.0 51 69 76.2 67.0 29.920 20.14 0.0 0 0.00 0.00 0.00 0.00
08/20/19 1:35:20 AM 31 0.0 0.0 51 69 76.2 67.0 29.920 20.14 0.0 0 0.00 0.00 0.00 0.00
08/20/19 1:36:32 AM 32 0.0 0.0 51 68 76.2 66.9 29.920 20.14 0.0 0 0.00 0.00 0.00 0.00
08/20/19 1:37:22 AM 31 0.0 0.0 51 68 76.2 66.9 29.920 20.14 0.0 0 0.00 0.00 0.00 0.00
08/20/19 1:38:37 AM 32 0.0 0.0 51 68 76.2 66.8 29.919 20.14 0.0 0 0.00 0.00 0.00 0.00
08/20/19 1:39:27 AM 32 0.0 0.0 51 68 76.2 66.7 29.922 20.14 0.0 0 0.00 0.00 0.00 0.00
08/20/19 1:40:21 AM 31 0.0 0.0 51 68 76.2 66.7 29.922 20.14 0.0 0 0.00 0.00 0.00 0.00
08/20/19 1:41:36 AM 32 0.0 0.0 51 68 76.2 66.7 29.919 20.14 0.0 0 0.00 0.00 0.00 0.00
08/20/19 1:42:23 AM 32 0.0 0.0 51 68 76.2 66.7 29.919 20.14 0.0 0 0.00 0.00 0.00 0.00
08/20/19 1:43:37 AM 32 0.0 0.0 51 68 76.2 66.6 29.921 20.14 0.0 0 0.00 0.00 0.00 0.00
08/20/19 1:44:28 AM 32 0.0 0.0 51 68 76.2 66.6 29.919 20.14 0.0 0 0.00 0.00 0.00 0.00
08/20/19 1:45:21 AM 32 0.0 0.0 51 68 76.2 66.5 29.919 20.14 0.0 0 0.00 0.00 0.00 0.00
08/20/19 1:46:36 AM 32 0.0 0.0 51 68 76.1 66.5 29.923 20.14 0.0 0 0.00 0.00 0.00 0.00
08/20/19 1:47:27 AM 32 0.0 0.0 51 68 76.1 66.4 29.921 20.14 0.0 0 0.00 0.00 0.00 0.00
08/20/19 1:48:35 AM 32 0.0 0.0 51 68 76.1 66.4 29.921 20.14 0.0 0 0.00 0.00 0.00 0.00
08/20/19 1:49:29 AM 32 0.0 0.0 51 68 76.1 66.3 29.921 20.14 0.0 0 0.00 0.00 0.00 0.00
08/20/19 1:50:22 AM 32 0.0 0.0 51 68 76.1 66.3 29.921 20.14 0.0 0 0.00 0.00 0.00 0.00
08/20/19 1:51:34 AM 32 0.0 0.0 51 68 76.1 66.2 29.920 20.14 0.0 0 0.00 0.00 0.00 0.00
08/20/19 1:52:27 AM 32 0.0 0.0 51 68 76.0 66.2 29.919 20.14 0.0 0 0.00 0.00 0.00 0.00
08/20/19 1:53:18 AM 32 0.0 0.0 51 68 76.0 66.2 29.919 20.14 0.0 0 0.00 0.00 0.00 0.00
08/20/19 1:54:29 AM 32 0.0 0.0 51 68 76.0 66.1 29.920 20.14 0.0 0 0.00 0.00 0.00 0.00
08/20/19 1:55:26 AM 32 0.0 0.0 51 68 76.0 66.1 29.920 20.14 0.0 0 0.00 0.00 0.00 0.00
08/20/19 1:56:35 AM 31 0.0 0.0 51 68 76.0 66.0 29.918 20.14 0.0 0 0.00 0.00 0.00 0.00
08/20/19 1:57:28 AM 31 0.0 0.0 51 68 76.0 66.1 29.919 20.14 0.0 0 0.00 0.00 0.00 0.00
08/20/19 1:58:22 AM 32 0.0 0.0 51 69 76.0 66.0 29.919 20.14 0.0 0 0.00 0.00 0.00 0.00
08/20/19 1:59:30 AM 31 0.0 0.0 51 69 76.0 66.0 29.920 20.14 0.0 0 0.00 0.00 0.00 0.00
08/20/19 2:00:24 AM 32 0.0 0.0 51 69 76.0 66.0 29.920 20.14 0.0 0 0.00 0.00 0.00 0.00
08/20/19 2:01:42 AM 32 0.0 0.0 51 69 76.0 66.0 29.919 20.14 0.0 0 0.00 0.00 0.00 0.00
08/20/19 2:02:35 AM 32 0.0 0.0 51 68 76.0 65.9 29.921 20.14 0.0 0 0.00 0.00 0.00 0.00
08/20/19 2:03:25 AM 32 0.0 0.0 51 68 75.9 65.9 29.917 20.14 0.0 0 0.00 0.00 0.00 0.00
08/20/19 2:04:34 AM 32 0.0 0.0 51 68 75.9 65.9 29.917 20.14 0.0 0 0.00 0.00 0.00 0.00
08/20/19 2:05:31 AM 32 0.0 0.0 51 68 75.9 65.9 29.920 20.14 0.0 0 0.00 0.00 0.00 0.00
08/20/19 2:06:21 AM 32 0.0 0.0 51 68 75.9 65.9 29.920 20.14 0.0 0 0.00 0.00 0.00 0.00
08/20/19 2:07:36 AM 31 0.0 0.0 51 69 75.9 65.8 29.917 20.14 0.0 0 0.00 0.00 0.00 0.00
08/20/19 2:08:29 AM 31 0.0 0.0 51 69 75.8 65.8 29.918 20.14 0.0 0 0.00 0.00 0.00 0.00
08/20/19 2:09:20 AM 32 0.0 0.0 51 69 75.8 65.8 29.918 20.14 0.0 0 0.00 0.00 0.00 0.00
08/20/19 2:10:28 AM 32 0.0 0.0 51 69 75.9 65.8 29.918 20.14 0.0 0 0.00 0.00 0.00 0.00
08/20/19 2:11:22 AM 31 0.0 0.0 51 68 75.9 65.8 29.918 20.14 0.0 0 0.00 0.00 0.00 0.00
08/20/19 2:12:34 AM 32 0.0 0.0 51 68 75.8 65.7 29.916 20.14 0.0 0 0.00 0.00 0.00 0.00
08/20/19 2:13:27 AM 31 0.0 0.0 51 69 75.8 65.7 29.917 20.14 0.0 0 0.00 0.00 0.00 0.00
08/20/19 2:14:21 AM 32 0.0 0.0 51 68 75.8 65.7 29.917 20.14 0.0 0 0.00 0.00 0.00 0.00
08/20/19 2:15:29 AM 31 0.0 0.0 51 68 75.8 65.7 29.917 20.14 0.0 0 0.00 0.00 0.00 0.00
08/20/19 2:16:23 AM 32 0.0 0.0 51 68 75.8 65.7 29.917 20.14 0.0 0 0.00 0.00 0.00 0.00
08/20/19 2:17:35 AM 32 0.0 0.0 51 68 75.7 65.7 29.915 20.14 0.0 0 0.00 0.00 0.00 0.00
08/20/19 2:18:28 AM 32 0.0 0.0 51 68 75.7 65.7 29.917 20.14 0.0 0 0.00 0.00 0.00 0.00
08/20/19 2:19:18 AM 32 0.0 0.0 51 68 75.7 65.6 29.917 20.14 0.0 0 0.00 0.00 0.00 0.00
08/20/19 2:20:27 AM 31 0.0 0.0 51 68 75.7 65.6 29.915 20.14 0.0 0 0.00 0.00 0.00 0.00
08/20/19 2:21:21 AM 32 0.0 0.0 51 68 75.7 65.6 29.915 20.14 0.0 0 0.00 0.00 0.00 0.00
08/20/19 2:22:35 AM 32 0.0 0.0 51 69 75.6 65.6 29.917 20.14 0.0 0 0.00 0.00 0.00 0.00
08/20/19 2:23:26 AM 32 0.0 0.0 51 69 75.7 65.5 29.915 20.14 0.0 0 0.00 0.00 0.00 0.00
08/20/19 2:24:20 AM 32 0.0 0.0 51 69 75.7 65.5 29.915 20.14 0.0 0 0.00 0.00 0.00 0.00
08/20/19 2:25:34 AM 31 0.0 0.0 51 69 75.6 65.5 29.914 20.14 0.0 0 0.00 0.00 0.00 0.00
08/20/19 2:26:22 AM 32 0.0 0.0 51 69 75.6 65.5 29.914 20.14 0.0 0 0.00 0.00 0.00 0.00
08/20/19 2:27:33 AM 32 0.0 0.0 51 69 75.6 65.4 29.916 20.14 0.0 0 0.00 0.00 0.00 0.00
08/20/19 2:28:27 AM 32 0.0 0.0 51 70 75.6 65.4 29.916 20.14 0.0 0 0.00 0.00 0.00 0.00
08/20/19 2:29:20 AM 32 0.0 0.0 51 69 75.6 65.4 29.916 20.14 0.0 0 0.00 0.00 0.00 0.00
08/20/19 2:30:32 AM 32 0.0 0.0 51 69 75.6 65.4 29.914 20.14 0.0 0 0.00 0.00 0.00 0.00
08/20/19 2:31:23 AM 32 0.0 0.0 51 70 75.6 65.3 29.914 20.14 0.0 0 0.00 0.00 0.00 0.00
08/20/19 2:32:34 AM 32 0.0 0.0 51 70 75.6 65.3 29.913 20.14 0.0 0 0.00 0.00 0.00 0.00
08/20/19 2:33:28 AM 32 0.0 0.0 51 70 75.6 65.2 29.915 20.14 0.0 0 0.00 0.00 0.00 0.00
08/20/19 2:34:21 AM 31 0.0 0.0 51 70 75.6 65.2 29.915 20.14 0.0 0 0.00 0.00 0.00 0.00
08/20/19 2:35:33 AM 32 0.0 0.0 51 70 75.7 65.1 29.916 20.14 0.0 0 0.00 0.00 0.00 0.00
08/20/19 2:36:27 AM 32 0.0 0.0 51 70 75.6 65.1 29.915 20.14 0.0 0 0.00 0.00 0.00 0.00
08/20/19 2:37:35 AM 31 0.0 0.0 51 70 75.6 65.0 29.913 20.14 0.0 0 0.00 0.00 0.00 0.00
08/20/19 2:38:29 AM 32 0.0 0.0 51 70 75.6 65.0 29.915 20.14 0.0 0 0.00 0.00 0.00 0.00
08/20/19 2:39:22 AM 31 0.0 0.0 51 70 75.6 65.0 29.915 20.14 0.0 0 0.00 0.00 0.00 0.00
08/20/19 2:40:34 AM 32 0.0 0.0 51 70 75.6 64.9 29.915 20.14 0.0 0 0.00 0.00 0.00 0.00
08/20/19 2:41:28 AM 32 0.0 0.0 51 70 75.5 64.9 29.915 20.14 0.0 0 0.00 0.00 0.00 0.00
08/20/19 2:42:36 AM 31 0.0 0.0 51 70 75.5 64.9 29.914 20.14 0.0 0 0.00 0.00 0.00 0.00
08/20/19 2:43:30 AM 32 0.0 0.0 51 70 75.5 64.9 29.916 20.14 0.0 0 0.00 0.00 0.00 0.00
08/20/19 2:44:20 AM 31 0.0 0.0 51 70 75.5 64.8 29.916 20.14 0.0 0 0.00 0.00 0.00 0.00
08/20/19 2:45:35 AM 32 0.0 0.0 51 70 75.6 64.8 29.914 20.14 0.0 0 0.00 0.00 0.00 0.00
08/20/19 2:46:29 AM 32 0.0 0.0 51 70 75.5 64.8 29.913 20.14 0.0 0 0.00 0.00 0.00 0.00
08/20/19 2:47:22 AM 31 0.0 0.0 51 70 75.5 64.8 29.913 20.14 0.0 0 0.00 0.00 0.00 0.00
08/20/19 2:48:31 AM 32 0.0 0.0 51 69 75.5 64.8 29.912 20.14 0.0 0 0.00 0.00 0.00 0.00
08/20/19 2:49:21 AM 32 0.0 0.0 51 70 75.5 64.8 29.912 20.14 0.0 0 0.00 0.00 0.00 0.00
08/20/19 2:50:36 AM 32 0.0 0.0 51 70 75.5 64.7 29.913 20.14 0.0 0 0.00 0.00 0.00 0.00
08/20/19 2:51:30 AM 32 0.0 0.0 51 69 75.4 64.7 29.911 20.14 0.0 0 0.00 0.00 0.00 0.00
08/20/19 2:52:20 AM 32 0.0 0.0 51 69 75.4 64.7 29.911 20.14 0.0 0 0.00 0.00 0.00 0.00
08/20/19 2:53:29 AM 31 0.0 0.0 51 69 75.4 64.7 29.911 20.14 0.0 0 0.00 0.00 0.00 0.00
08/20/19 2:54:22 AM 31 0.0 0.0 51 69 75.4 64.7 29.911 20.14 0.0 0 0.00 0.00 0.00 0.00
08/20/19 2:55:37 AM 32 0.0 0.0 51 69 75.4 64.6 29.912 20.14 0.0 0 0.00 0.00 0.00 0.00
08/20/19 2:56:31 AM 31 0.0 0.0 51 69 75.4 64.6 29.912 20.14 0.0 0 0.00 0.00 0.00 0.00
08/20/19 2:57:21 AM 31 0.0 0.0 51 69 75.4 64.6 29.912 20.14 0.0 0 0.00 0.00 0.00 0.00
08/20/19 2:58:30 AM 31 0.0 0.0 51 69 75.4 64.6 29.912 20.14 0.0 0 0.00 0.00 0.00 0.00
08/20/19 2:59:24 AM 32 0.0 0.0 51 68 75.4 64.6 29.912 20.14 0.0 0 0.00 0.00 0.00 0.00
08/20/19 3:00:17 AM 32 0.0 0.0 51 68 75.3 64.6 29.912 20.14 0.0 0 0.00 0.00 0.00 0.00
08/20/19 3:01:29 AM 32 0.0 0.0 51 68 75.3 64.6 29.912 20.14 0.0 0 0.00 0.00 0.00 0.00
08/20/19 3:02:23 AM 32 0.0 0.0 51 68 75.3 64.6 29.912 20.14 0.0 0 0.00 0.00 0.00 0.00
08/20/19 3:03:35 AM 32 0.0 0.0 51 68 75.2 64.5 29.914 20.14 0.0 0 0.00 0.00 0.00 0.00
08/20/19 3:04:25 AM 32 0.0 0.0 51 68 75.2 64.5 29.914 20.14 0.0 0 0.00 0.00 0.00 0.00
08/20/19 3:05:19 AM 31 0.0 0.0 51 68 75.2 64.5 29.912 20.14 0.0 0 0.00 0.00 0.00 0.00
08/20/19 3:06:31 AM 32 0.0 0.0 51 68 75.2 64.5 29.914 20.14 0.0 0 0.00 0.00 0.00 0.00
08/20/19 3:07:24 AM 31 0.0 0.0 51 68 75.2 64.5 29.914 20.14 0.0 0 0.00 0.00 0.00 0.00
08/20/19 3:08:18 AM 31 0.0 0.0 51 68 75.2 64.5 29.911 20.14 0.0 0 0.00 0.00 0.00 0.00
08/20/19 3:09:27 AM 31 0.0 0.0 51 68 75.1 64.4 29.914 20.14 0.0 0 0.00 0.00 0.00 0.00
08/20/19 3:10:17 AM 32 0.0 0.0 51 68 75.1 64.4 29.912 20.14 0.0 0 0.00 0.00 0.00 0.00
08/20/19 3:11:32 AM 32 0.0 0.0 51 68 75.1 64.4 29.912 20.14 0.0 0 0.00 0.00 0.00 0.00
08/20/19 3:12:25 AM 32 0.0 0.0 51 68 75.1 64.3 29.912 20.14 0.0 0 0.00 0.00 0.00 0.00
08/20/19 3:13:16 AM 32 0.0 0.0 51 68 75.1 64.3 29.914 20.14 0.0 0 0.00 0.00 0.00 0.00
08/20/19 3:14:31 AM 32 0.0 0.0 51 68 75.1 64.3 29.912 20.14 0.0 0 0.00 0.00 0.00 0.00
08/20/19 3:15:21 AM 32 0.0 0.0 51 68 75.1 64.2 29.912 20.14 0.0 0 0.00 0.00 0.00 0.00
08/20/19 3:16:30 AM 32 0.0 0.0 51 68 75.1 64.2 29.913 20.14 0.0 0 0.00 0.00 0.00 0.00
08/20/19 3:17:23 AM 31 0.0 0.0 51 68 75.1 64.1 29.913 20.14 0.0 0 0.00 0.00 0.00 0.00
08/20/19 3:18:17 AM 31 0.0 0.0 51 68 75.1 64.1 29.911 20.14 0.0 0 0.00 0.00 0.00 0.00
08/20/19 3:19:29 AM 32 0.0 0.0 51 68 75.1 64.1 29.913 20.14 0.0 0 0.00 0.00 0.00 0.00
08/20/19 3:20:19 AM 32 0.0 0.0 51 68 75.1 64.0 29.913 20.14 0.0 0 0.00 0.00 0.00 0.00
08/20/19 3:21:31 AM 32 0.0 0.0 51 68 75.1 64.0 29.912 20.14 0.0 0 0.00 0.00 0.00 0.00
08/20/19 3:22:25 AM 32 0.0 0.0 51 68 75.1 64.0 29.912 20.14 0.0 0 0.00 0.00 0.00 0.00
08/20/19 3:23:18 AM 31 0.0 0.0 51 68 75.1 64.0 29.913 20.14 0.0 0 0.00 0.00 0.00 0.00
08/20/19 3:24:30 AM 31 0.0 0.0 51 68 75.1 63.9 29.913 20.14 0.0 0 0.00 0.00 0.00 0.00
08/20/19 3:25:23 AM 32 0.0 0.0 51 68 75.1 63.9 29.913 20.14 0.0 0 0.00 0.00 0.00 0.00
08/20/19 3:26:32 AM 31 0.0 0.0 51 68 75.1 63.8 29.913 20.14 0.0 0 0.00 0.00 0.00 0.00
08/20/19 3:27:26 AM 31 0.0 0.0 51 69 75.1 63.8 29.913 20.14 0.0 0 0.00 0.00 0.00 0.00
08/20/19 3:28:19 AM 32 0.0 0.0 51 69 75.1 63.8 29.913 20.14 0.0 0 0.00 0.00 0.00 0.00
08/20/19 3:29:31 AM 31 0.0 0.0 51 69 75.1 63.8 29.911 20.14 0.0 0 0.00 0.00 0.00 0.00
08/20/19 3:30:25 AM 32 0.0 0.0 51 69 75.1 63.7 29.911 20.14 0.0 0 0.00 0.00 0.00 0.00
08/20/19 3:31:33 AM 32 0.0 0.0 51 70 75.1 63.6 29.914 20.14 0.0 0 0.00 0.00 0.00 0.00
08/20/19 3:32:24 AM 32 0.0 0.0 51 70 75.1 63.6 29.914 20.14 0.0 0 0.00 0.00 0.00 0.00
08/20/19 3:33:18 AM 32 0.0 0.0 51 70 75.1 63.6 29.912 20.14 0.0 0 0.00 0.00 0.00 0.00
08/20/19 3:34:32 AM 31 0.0 0.0 51 70 75.1 63.6 29.913 20.14 0.0 0 0.00 0.00 0.00 0.00
08/20/19 3:35:26 AM 31 0.0 0.0 51 70 75.1 63.5 29.913 20.14 0.0 0 0.00 0.00 0.00 0.00
08/20/19 3:36:16 AM 32 0.0 0.0 51 70 75.1 63.5 29.912 20.14 0.0 0 0.00 0.00 0.00 0.00
08/20/19 3:37:25 AM 32 0.0 0.0 51 70 75.0 63.5 29.916 20.14 0.0 0 0.00 0.00 0.00 0.00
08/20/19 3:38:19 AM 31 0.0 0.0 51 70 75.0 63.5 29.916 20.14 0.0 0 0.00 0.00 0.00 0.00
08/20/19 3:39:31 AM 31 0.0 0.0 51 70 75.0 63.5 29.916 20.14 0.0 0 0.00 0.00 0.00 0.00
08/20/19 3:40:24 AM 31 0.0 0.0 51 70 75.0 63.5 29.916 20.14 0.0 0 0.00 0.00 0.00 0.00
08/20/19 3:41:18 AM 31 0.0 0.0 51 70 75.0 63.4 29.915 20.14 0.0 0 0.00 0.00 0.00 0.00
08/20/19 3:42:27 AM 31 0.0 0.0 51 70 75.0 63.4 29.916 20.14 0.0 0 0.00 0.00 0.00 0.00
08/20/19 3:43:17 AM 31 0.0 0.0 51 71 75.0 63.5 29.916 20.14 0.0 0 0.00 0.00 0.00 0.00
08/20/19 3:44:32 AM 31 0.0 0.0 51 71 75.0 63.4 29.917 20.14 0.0 0 0.00 0.00 0.00 0.00
08/20/19 3:45:26 AM 32 0.0 0.0 51 71 75.0 63.4 29.917 20.14 0.0 0 0.00 0.00 0.00 0.00
08/20/19 3:46:16 AM 31 0.0 0.0 51 70 75.0 63.4 29.916 20.14 0.0 0 0.00 0.00 0.00 0.00
08/20/19 3:47:25 AM 32 0.0 0.0 51 70 75.0 63.3 29.916 20.14 0.0 0 0.00 0.00 0.00 0.00
08/20/19 3:48:18 AM 32 0.0 0.0 51 70 75.0 63.3 29.916 20.14 0.0 0 0.00 0.00 0.00 0.00
08/20/19 3:49:30 AM 32 0.0 0.0 51 70 75.0 63.3 29.915 20.14 0.0 0 0.00 0.00 0.00 0.00
08/20/19 3:50:24 AM 32 0.0 0.0 51 70 75.0 63.3 29.915 20.14 0.0 0 0.00 0.00 0.00 0.00
08/20/19 3:51:17 AM 32 0.0 0.0 51 70 75.0 63.2 29.915 20.14 0.0 0 0.00 0.00 0.00 0.00
08/20/19 3:52:29 AM 31 0.0 0.0 51 70 74.9 63.2 29.915 20.14 0.0 0 0.00 0.00 0.00 0.00
08/20/19 3:53:20 AM 31 0.0 0.0 51 70 74.9 63.2 29.915 20.14 0.0 0 0.00 0.00 0.00 0.00
08/20/19 3:54:32 AM 32 0.0 0.0 51 70 75.0 63.2 29.914 20.14 0.0 0 0.00 0.00 0.00 0.00
08/20/19 3:55:25 AM 32 0.0 0.0 51 70 75.0 63.2 29.914 20.14 0.0 0 0.00 0.00 0.00 0.00
08/20/19 3:56:16 AM 32 0.0 0.0 51 70 75.0 63.1 29.913 20.14 0.0 0 0.00 0.00 0.00 0.00
08/20/19 3:57:31 AM 32 0.0 0.0 51 70 74.9 63.1 29.915 20.14 0.0 0 0.00 0.00 0.00 0.00
08/20/19 3:58:18 AM 32 0.0 0.0 51 70 74.9 63.1 29.915 20.14 0.0 0 0.00 0.00 0.00 0.00
08/20/19 3:59:33 AM 32 0.0 0.0 51 70 74.9 63.1 29.916 20.14 0.0 0 0.00 0.00 0.00 0.00
08/20/19 4:00:24 AM 32 0.0 0.0 51 70 74.9 63.0 29.916 20.14 0.0 0 0.00 0.00 0.00 0.00
08/20/19 4:01:26 AM 32 0.0 0.0 51 71 74.9 63.0 29.916 20.14 0.0 0 0.00 0.00 0.00 0.00
08/20/19 4:02:17 AM 32 0.0 0.0 51 71 74.9 63.0 29.917 20.14 0.0 0 0.00 0.00 0.00 0.00
08/20/19 4:03:29 AM 32 0.0 0.0 51 71 74.9 62.9 29.914 20.14 0.0 0 0.00 0.00 0.00 0.00
08/20/19 4:04:16 AM 31 0.0 0.0 51 71 74.9 62.9 29.914 20.14 0.0 0 0.00 0.00 0.00 0.00
08/20/19 4:05:31 AM 31 0.0 0.0 51 71 74.9 62.9 29.914 20.14 0.0 0 0.00 0.00 0.00 0.00
08/20/19 4:06:25 AM 32 0.0 0.0 51 71 74.9 62.9 29.914 20.14 0.0 0 0.00 0.00 0.00 0.00
08/20/19 4:07:19 AM 31 0.0 0.0 51 71 74.9 62.9 29.915 20.14 0.0 0 0.00 0.00 0.00 0.00
08/20/19 4:08:30 AM 32 0.0 0.0 51 70 74.9 62.9 29.915 20.14 0.0 0 0.00 0.00 0.00 0.00
08/20/19 4:09:18 AM 31 0.0 0.0 51 70 74.9 62.9 29.915 20.14 0.0 0 0.00 0.00 0.00 0.00
08/20/19 4:10:33 AM 32 0.0 0.0 51 70 74.9 62.8 29.916 20.14 0.0 0 0.00 0.00 0.00 0.00
08/20/19 4:11:23 AM 32 0.0 0.0 51 70 74.9 62.8 29.916 20.14 0.0 0 0.00 0.00 0.00 0.00
08/20/19 4:12:17 AM 32 0.0 0.0 51 70 74.9 62.8 29.916 20.14 0.0 0 0.00 0.00 0.00 0.00
08/20/19 4:13:32 AM 32 0.0 0.0 51 70 74.9 62.8 29.914 20.14 0.0 0 0.00 0.00 0.00 0.00
08/20/19 4:15:45 AM 32 0.0 0.0 51 71 75.0 62.8 29.916 20.14 0.0 0 0.00 0.00 0.00 0.00
08/20/19 4:16:36 AM 32 0.0 0.0 51 71 75.0 62.8 29.915 20.14 0.0 0 0.00 0.00 0.00 0.00
08/20/19 4:17:29 AM 32 0.0 0.0 51 71 74.9 62.8 29.915 20.14 0.0 0 0.00 0.00 0.00 0.00
08/20/19 4:18:23 AM 31 0.0 0.0 51 71 74.9 62.8 29.915 20.14 0.0 0 0.00 0.00 0.00 0.00
08/20/19 4:19:35 AM 32 0.0 0.0 51 71 74.9 62.8 29.916 20.14 0.0 0 0.00 0.00 0.00 0.00
08/20/19 4:20:28 AM 31 0.0 0.0 51 71 74.9 62.8 29.914 20.14 0.0 0 0.00 0.00 0.00 0.00
08/20/19 4:21:37 AM 32 0.0 0.0 51 71 74.9 62.8 29.916 20.14 0.0 0 0.00 0.00 0.00 0.00
08/20/19 4:22:28 AM 32 0.0 0.0 51 71 74.9 62.7 29.916 20.14 0.0 0 0.00 0.00 0.00 0.00
08/20/19 4:23:21 AM 32 0.0 0.0 51 70 74.9 62.7 29.916 20.14 0.0 0 0.00 0.00 0.00 0.00
08/20/19 4:24:33 AM 32 0.0 0.0 51 70 74.9 62.7 29.917 20.14 0.0 0 0.00 0.00 0.00 0.00
08/20/19 4:25:30 AM 32 0.0 0.0 51 70 74.9 62.7 29.914 20.14 0.0 0 0.00 0.00 0.00 0.00
08/20/19 4:26:21 AM 32 0.0 0.0 51 70 74.9 62.7 29.914 20.14 0.0 0 0.00 0.00 0.00 0.00
08/20/19 4:27:29 AM 32 0.0 0.0 51 70 74.9 62.7 29.917 20.14 0.0 0 0.00 0.00 0.00 0.00
08/20/19 4:28:23 AM 31 0.0 0.0 51 70 74.9 62.7 29.917 20.14 0.0 0 0.00 0.00 0.00 0.00
08/20/19 4:29:35 AM 32 0.0 0.0 51 70 74.9 62.7 29.916 20.14 0.0 0 0.00 0.00 0.00 0.00
08/20/19 4:30:29 AM 31 0.0 0.0 51 70 74.8 62.7 29.916 20.14 0.0 0 0.00 0.00 0.00 0.00
08/20/19 4:31:20 AM 32 0.0 0.0 51 70 74.8 62.7 29.916 20.14 0.0 0 0.00 0.00 0.00 0.00
08/20/19 4:32:29 AM 31 0.0 0.0 51 71 74.8 62.6 29.916 20.14 0.0 0 0.00 0.00 0.00 0.00
08/20/19 4:33:22 AM 32 0.0 0.0 51 71 74.8 62.6 29.916 20.14 0.0 0 0.00 0.00 0.00 0.00
08/20/19 4:34:34 AM 32 0.0 0.0 51 71 74.8 62.6 29.916 20.14 0.0 0 0.00 0.00 0.00 0.00
08/20/19 4:35:28 AM 32 0.0 0.0 51 71 74.8 62.6 29.916 20.14 0.0 0 0.00 0.00 0.00 0.00
08/20/19 4:36:22 AM 31 0.0 0.0 51 71 74.8 62.6 29.916 20.14 0.0 0 0.00 0.00 0.00 0.00
08/20/19 4:37:31 AM 32 0.0 0.0 51 71 74.8 62.5 29.914 20.14 0.0 0 0.00 0.00 0.00 0.00
08/20/19 4:38:21 AM 32 0.0 0.0 51 71 74.8 62.5 29.914 20.14 0.0 0 0.00 0.00 0.00 0.00
08/20/19 4:39:36 AM 31 0.0 0.0 51 71 74.8 62.5 29.913 20.14 0.0 0 0.00 0.00 0.00 0.00
08/20/19 4:40:27 AM 32 0.0 0.0 51 71 74.8 62.5 29.916 20.14 0.0 0 0.00 0.00 0.00 0.00
08/20/19 4:41:20 AM 32 0.0 0.0 51 72 74.8 62.5 29.916 20.14 0.0 0 0.00 0.00 0.00 0.00
08/20/19 4:42:32 AM 32 0.0 0.0 51 72 74.8 62.4 29.913 20.14 0.0 0 0.00 0.00 0.00 0.00
08/20/19 4:43:20 AM 32 0.0 0.0 51 72 74.8 62.4 29.913 20.14 0.0 0 0.00 0.00 0.00 0.00
08/20/19 4:44:35 AM 32 0.0 0.0 51 72 74.7 62.3 29.915 20.14 0.0 0 0.00 0.00 0.00 0.00
08/20/19 4:45:29 AM 31 0.0 0.0 51 72 74.7 62.3 29.915 20.14 0.0 0 0.00 0.00 0.00 0.00
08/20/19 4:46:19 AM 32 0.0 0.0 51 72 74.7 62.3 29.915 20.14 0.0 0 0.00 0.00 0.00 0.00
08/20/19 4:47:34 AM 32 0.0 0.0 51 72 74.8 62.2 29.915 20.14 0.0 0 0.00 0.00 0.00 0.00
08/20/19 4:48:22 AM 32 0.0 0.0 51 72 74.8 62.2 29.915 20.14 0.0 0 0.00 0.00 0.00 0.00
08/20/19 4:49:34 AM 32 0.0 0.0 51 73 74.7 62.1 29.916 20.14 0.0 0 0.00 0.00 0.00 0.00
08/20/19 4:50:27 AM 32 0.0 0.0 51 73 74.7 62.2 29.916 20.14 0.0 0 0.00 0.00 0.00 0.00
08/20/19 4:51:21 AM 32 0.0 0.0 51 73 74.7 62.1 29.916 20.14 0.0 0 0.00 0.00 0.00 0.00
08/20/19 4:52:33 AM 31 0.0 0.0 51 73 74.7 62.1 29.914 20.14 0.0 0 0.00 0.00 0.00 0.00
08/20/19 4:53:27 AM 32 0.0 0.0 51 73 74.8 62.0 29.914 20.14 0.0 0 0.00 0.00 0.00 0.00
08/20/19 4:54:36 AM 32 0.0 0.0 51 73 74.8 62.0 29.916 20.14 0.0 0 0.00 0.00 0.00 0.00
08/20/19 4:55:29 AM 32 0.0 0.0 51 73 74.7 62.0 29.914 20.14 0.0 0 0.00 0.00 0.00 0.00
08/20/19 4:56:20 AM 31 0.0 0.0 51 73 74.7 62.0 29.914 20.14 0.0 0 0.00 0.00 0.00 0.00
08/20/19 4:57:32 AM 32 0.0 0.0 51 73 74.8 61.9 29.918 20.14 0.0 0 0.00 0.00 0.00 0.00
08/20/19 4:58:26 AM 32 0.0 0.0 51 73 74.8 61.9 29.917 20.14 0.0 0 0.00 0.00 0.00 0.00
08/20/19 4:59:35 AM 31 0.0 0.0 51 73 74.8 61.9 29.914 20.14 0.0 0 0.00 0.00 0.00 0.00
08/20/19 5:00:28 AM 32 0.0 0.0 51 73 74.8 61.9 29.917 20.14 0.0 0 0.00 0.00 0.00 0.00
08/20/19 5:01:19 AM 32 0.0 0.0 51 73 74.8 61.8 29.917 20.14 0.0 0 0.00 0.00 0.00 0.00
08/20/19 5:02:34 AM 32 0.0 0.0 51 73 74.7 61.8 29.917 20.14 0.0 0 0.00 0.00 0.00 0.00
08/20/19 5:03:25 AM 32 0.0 0.0 51 73 74.7 61.8 29.917 20.14 0.0 0 0.00 0.00 0.00 0.00
08/20/19 5:04:19 AM 31 0.0 0.0 51 73 74.7 61.8 29.917 20.14 0.0 0 0.00 0.00 0.00 0.00
08/20/19 5:05:31 AM 32 0.0 0.0 51 73 74.7 61.8 29.917 20.14 0.0 0 0.00 0.00 0.00 0.00
08/20/19 5:06:21 AM 31 0.0 0.0 51 73 74.7 61.7 29.917 20.14 0.0 0 0.00 0.00 0.00 0.00
08/20/19 5:07:33 AM 31 0.0 0.0 51 73 74.8 61.7 29.915 20.14 0.0 0 0.00 0.00 0.00 0.00
08/20/19 5:08:27 AM 31 0.0 0.0 51 73 74.7 61.7 29.918 20.14 0.0 0 0.00 0.00 0.00 0.00
08/20/19 5:09:18 AM 31 0.0 0.0 51 73 74.7 61.6 29.918 20.14 0.0 0 0.00 0.00 0.00 0.00
08/20/19 5:10:27 AM 31 0.0 0.0 51 73 74.8 61.6 29.918 20.14 0.0 0 0.00 0.00 0.00 0.00
08/20/19 5:11:20 AM 31 0.0 0.0 51 73 74.8 61.6 29.918 20.14 0.0 0 0.00 0.00 0.00 0.00
08/20/19 5:12:32 AM 31 0.0 0.0 51 73 74.8 61.5 29.922 20.14 0.0 0 0.00 0.00 0.00 0.00
08/20/19 5:13:26 AM 32 0.0 0.0 51 74 74.7 61.5 29.921 20.14 0.0 0 0.00 0.00 0.00 0.00
08/20/19 5:14:20 AM 32 0.0 0.0 51 74 74.7 61.5 29.921 20.14 0.0 0 0.00 0.00 0.00 0.00
08/20/19 5:15:29 AM 32 0.0 0.0 51 74 74.7 61.5 29.917 20.14 0.0 0 0.00 0.00 0.00 0.00
08/20/19 5:16:19 AM 32 0.0 0.0 51 74 74.7 61.5 29.917 20.14 0.0 0 0.00 0.00 0.00 0.00
08/20/19 5:17:34 AM 31 0.0 0.0 51 74 74.7 61.5 29.923 20.14 0.0 0 0.00 0.00 0.00 0.00
08/20/19 5:18:25 AM 32 0.0 0.0 51 74 74.8 61.5 29.922 20.14 0.0 0 0.00 0.00 0.00 0.00
08/20/19 5:19:19 AM 31 0.0 0.0 51 74 74.8 61.6 29.922 20.14 0.0 0 0.00 0.00 0.00 0.00
08/20/19 5:20:31 AM 31 0.0 0.0 51 74 74.7 61.6 29.922 20.14 0.0 0 0.00 0.00 0.00 0.00
08/20/19 5:21:22 AM 32 0.0 0.0 51 74 74.7 61.6 29.922 20.14 0.0 0 0.00 0.00 0.00 0.00
08/20/19 5:22:34 AM 31 0.0 0.0 51 74 74.7 61.6 29.923 20.14 0.0 0 0.00 0.00 0.00 0.00
08/20/19 5:23:24 AM 32 0.0 0.0 51 74 74.7 61.6 29.923 20.14 0.0 0 0.00 0.00 0.00 0.00
08/20/19 5:24:18 AM 32 0.0 0.0 51 74 74.7 61.6 29.924 20.14 0.0 0 0.00 0.00 0.00 0.00
08/20/19 5:25:33 AM 31 0.0 0.0 51 74 74.6 61.6 29.926 20.14 0.0 0 0.00 0.00 0.00 0.00
08/20/19 5:26:21 AM 32 0.0 0.0 51 74 74.6 61.6 29.926 20.14 0.0 0 0.00 0.00 0.00 0.00
08/20/19 5:27:33 AM 32 0.0 0.0 51 74 74.6 61.6 29.923 20.14 0.0 0 0.00 0.00 0.00 0.00
08/20/19 5:28:26 AM 32 0.0 0.0 51 74 74.6 61.6 29.925 20.14 0.0 0 0.00 0.00 0.00 0.00
08/20/19 5:29:20 AM 31 0.0 0.0 51 74 74.6 61.6 29.925 20.14 0.0 0 0.00 0.00 0.00 0.00
08/20/19 5:30:32 AM 32 0.0 0.0 51 74 74.6 61.6 29.927 20.14 0.0 0 0.00 0.00 0.00 0.00
08/20/19 5:31:23 AM 32 0.0 0.0 51 74 74.6 61.6 29.927 20.14 0.0 0 0.00 0.00 0.00 0.00
08/20/19 5:32:32 AM 32 0.0 0.0 51 74 74.6 61.6 29.925 20.14 0.0 0 0.00 0.00 0.00 0.00
08/20/19 5:33:26 AM 32 0.0 0.0 51 74 74.6 61.6 29.923 20.14 0.0 0 0.00 0.00 0.00 0.00
08/20/19 5:34:19 AM 32 0.0 0.0 51 74 74.6 61.5 29.923 20.14 0.0 0 0.00 0.00 0.00 0.00
08/20/19 5:35:34 AM 31 0.0 0.0 51 74 74.6 61.5 29.921 20.14 0.0 0 0.00 0.00 0.00 0.00
08/20/19 5:36:25 AM 32 0.0 0.0 51 74 74.6 61.5 29.921 20.14 0.0 0 0.00 0.00 0.00 0.00
08/20/19 5:37:34 AM 31 0.0 0.0 51 74 74.5 61.5 29.924 20.14 0.0 0 0.00 0.00 0.00 0.00
08/20/19 5:38:28 AM 32 0.0 0.0 51 74 74.6 61.5 29.923 20.14 0.0 0 0.00 0.00 0.00 0.00
08/20/19 5:39:19 AM 31 0.0 0.0 51 74 74.6 61.4 29.923 20.14 0.0 0 0.00 0.00 0.00 0.00
08/20/19 5:40:34 AM 32 0.0 0.0 51 74 74.5 61.4 29.923 20.14 0.0 0 0.00 0.00 0.00 0.00
08/20/19 5:41:24 AM 31 0.0 0.0 51 74 74.5 61.4 29.923 20.14 0.0 0 0.00 0.00 0.00 0.00
08/20/19 5:42:18 AM 31 0.0 0.0 51 74 74.4 61.4 29.924 20.14 0.0 0 0.00 0.00 0.00 0.00
08/20/19 5:43:27 AM 31 0.0 0.0 51 74 74.4 61.4 29.926 20.14 0.0 0 0.00 0.00 0.00 0.00
08/20/19 5:44:21 AM 32 0.0 0.0 51 74 74.4 61.4 29.926 20.14 0.0 0 0.00 0.00 0.00 0.00
08/20/19 5:45:36 AM 31 0.0 0.0 51 74 74.3 61.4 29.927 20.14 0.0 0 0.00 0.00 0.00 0.00
08/20/19 5:46:27 AM 32 0.0 0.0 51 74 74.3 61.4 29.925 20.14 0.0 0 0.00 0.00 0.00 0.00
08/20/19 5:47:20 AM 32 0.0 0.0 51 74 74.3 61.4 29.925 20.14 0.0 0 0.00 0.00 0.00 0.00
08/20/19 5:48:29 AM 32 0.0 0.0 51 74 74.3 61.4 29.927 20.14 0.0 0 0.00 0.00 0.00 0.00
08/20/19 5:49:20 AM 32 0.0 0.0 51 74 74.3 61.4 29.927 20.14 0.0 0 0.00 0.00 0.00 0.00
08/20/19 5:50:35 AM 32 0.0 0.0 51 74 74.2 61.4 29.926 20.14 0.0 0 0.00 0.00 0.00 0.00
08/20/19 5:51:26 AM 32 0.0 0.0 51 74 74.2 61.4 29.928 20.14 0.0 0 0.00 0.00 0.00 0.00
08/20/19 5:52:20 AM 32 0.0 0.0 51 74 74.2 61.4 29.928 20.14 0.0 0 0.00 0.00 0.00 0.00
08/20/19 5:53:29 AM 32 0.0 0.0 51 74 74.1 61.4 29.929 20.14 0.0 0 0.00 0.00 0.00 0.00
08/20/19 5:54:22 AM 32 0.0 0.0 51 74 74.1 61.4 29.929 20.14 0.0 0 0.00 0.00 0.00 0.00
08/20/19 5:55:37 AM 32 0.0 0.0 51 74 74.0 61.4 29.928 20.14 0.0 0 0.00 0.00 0.00 0.00
08/20/19 5:56:28 AM 31 0.0 0.0 51 74 74.0 61.4 29.931 20.14 0.0 0 0.00 0.00 0.00 0.00
08/20/19 5:57:22 AM 32 0.0 0.0 51 74 74.0 61.4 29.931 20.14 0.0 0 0.00 0.00 0.00 0.00
08/20/19 5:58:34 AM 32 0.0 0.0 51 74 73.9 61.4 29.929 20.14 0.0 0 0.00 0.00 0.00 0.00
08/20/19 5:59:22 AM 32 0.0 0.0 51 74 73.9 61.4 29.929 20.14 0.0 0 0.00 0.00 0.00 0.00
08/20/19 6:00:37 AM 32 0.0 0.0 51 74 73.9 61.4 29.932 20.14 0.0 0 0.00 0.00 0.00 0.00
08/20/19 6:01:28 AM 32 0.0 0.0 51 74 73.8 61.3 29.931 20.14 0.0 0 0.00 0.00 0.00 0.00
08/20/19 6:02:27 AM 32 0.0 0.0 51 74 73.8 61.3 29.931 20.14 0.0 0 0.00 0.00 0.00 0.00
08/20/19 6:03:21 AM 32 0.0 0.0 51 74 73.8 61.3 29.931 20.14 0.0 0 0.00 0.00 0.00 0.00
08/20/19 6:04:30 AM 32 0.0 0.0 51 74 73.7 61.3 29.934 20.14 0.0 0 0.00 0.00 0.00 0.00
08/20/19 6:05:24 AM 32 0.0 0.0 51 74 73.7 61.3 29.934 20.14 0.0 0 0.00 0.00 0.00 0.00
08/20/19 6:06:36 AM 32 0.0 0.0 51 74 73.6 61.3 29.933 20.14 0.0 0 0.00 0.00 0.00 0.00
08/20/19 6:07:30 AM 31 0.0 0.0 51 74 73.6 61.3 29.934 20.14 0.0 0 0.00 0.00 0.00 0.00
08/20/19 6:08:21 AM 31 0.0 0.0 51 74 73.6 61.3 29.934 20.14 0.0 0 0.00 0.00 0.00 0.00
08/20/19 6:09:36 AM 32 0.0 0.0 51 74 73.4 61.2 29.936 20.14 0.0 0 0.00 0.00 0.00 0.00
08/20/19 6:10:24 AM 32 0.0 0.0 51 74 73.4 61.2 29.936 20.14 0.0 0 0.00 0.00 0.00 0.00
08/20/19 6:11:17 AM 31 0.0 0.0 51 74 73.3 61.2 29.933 20.14 0.0 0 0.00 0.00 0.00 0.00
08/20/19 6:12:30 AM 31 0.0 0.0 51 74 73.1 61.1 29.936 20.14 0.0 0 0.00 0.00 0.00 0.00
08/20/19 6:13:23 AM 31 0.0 0.0 51 74 73.1 61.1 29.936 20.14 0.0 0 0.00 0.00 0.00 0.00
08/20/19 6:14:35 AM 32 0.0 0.0 51 74 73.0 61.1 29.937 20.14 0.0 0 0.00 0.00 0.00 0.00
08/20/19 6:15:26 AM 32 0.0 0.0 51 74 73.0 61.0 29.937 20.14 0.0 0 0.00 0.00 0.00 0.00
08/20/19 6:16:17 AM 32 0.0 0.0 51 74 72.9 61.0 29.938 20.14 0.0 5 0.00 0.00 0.00 0.00
08/20/19 6:17:29 AM 32 0.0 0.0 52 74 72.8 61.0 29.938 20.14 0.0 5 0.00 0.00 0.00 0.00
08/20/19 6:18:23 AM 31 0.0 0.0 52 74 72.8 61.0 29.938 20.14 0.0 5 0.00 0.00 0.00 0.00
08/20/19 6:19:35 AM 31 0.0 0.0 52 74 72.7 61.0 29.938 20.14 0.0 5 0.00 0.00 0.00 0.00
08/20/19 6:20:29 AM 31 0.0 0.0 52 74 72.7 61.0 29.939 20.14 0.0 5 0.00 0.00 0.00 0.00
08/20/19 6:21:17 AM 32 0.0 0.0 52 74 72.7 61.0 29.939 20.14 0.0 5 0.00 0.00 0.00 0.00
08/20/19 6:22:32 AM 32 0.0 0.0 52 74 72.6 60.9 29.942 20.14 0.0 7 0.00 0.00 0.00 0.00
08/20/19 6:23:23 AM 32 0.0 0.0 52 74 72.6 60.9 29.942 20.14 0.0 7 0.00 0.00 0.00 0.00
08/20/19 6:24:35 AM 32 0.0 0.0 52 74 72.6 60.9 29.942 20.14 0.0 7 0.00 0.00 0.00 0.00
08/20/19 6:25:29 AM 32 0.0 0.0 52 74 72.5 60.9 29.938 20.14 0.0 7 0.00 0.00 0.00 0.00
08/20/19 6:26:35 AM 31 0.0 0.0 52 74 72.5 60.9 29.939 20.14 0.0 9 0.00 0.00 0.00 0.00
08/20/19 6:27:28 AM 32 0.0 0.0 52 74 72.4 60.9 29.939 20.14 0.0 9 0.00 0.00 0.00 0.00
08/20/19 6:28:22 AM 32 0.0 0.0 52 74 72.4 60.9 29.939 20.14 0.0 9 0.00 0.00 0.00 0.00
08/20/19 6:29:34 AM 31 0.0 0.0 52 74 72.4 60.9 29.941 20.14 0.0 9 0.00 0.00 0.00 0.00
08/20/19 6:30:28 AM 31 0.0 0.0 52 74 72.4 61.0 29.942 20.14 0.0 9 0.00 0.00 0.00 0.00
08/20/19 6:31:19 AM 31 0.0 0.0 52 74 72.4 61.0 29.942 20.14 0.0 11 0.00 0.00 0.00 0.00
08/20/19 6:32:28 AM 31 0.0 0.0 52 74 72.4 61.0 29.939 20.14 0.0 11 0.00 0.00 0.00 0.00
08/20/19 6:33:22 AM 31 0.0 0.0 52 74 72.4 61.0 29.939 20.14 0.0 11 0.00 0.00 0.00 0.00
08/20/19 6:34:34 AM 31 0.0 0.0 52 74 72.4 61.0 29.943 20.14 0.0 11 0.00 0.00 0.00 0.00
08/20/19 6:35:28 AM 32 0.0 0.0 52 74 72.4 61.1 29.943 20.14 0.0 12 0.00 0.00 0.00 0.00
08/20/19 6:36:19 AM 31 0.0 0.0 52 74 72.4 61.1 29.943 20.14 0.0 12 0.00 0.00 0.00 0.00
08/20/19 6:37:28 AM 32 0.0 0.0 52 74 72.4 61.1 29.941 20.14 0.0 12 0.00 0.00 0.00 0.00
08/20/19 6:38:22 AM 32 0.0 0.0 52 74 72.4 61.1 29.941 20.14 0.0 12 0.00 0.00 0.00 0.00
08/20/19 6:39:35 AM 32 0.0 0.0 52 74 72.4 61.1 29.941 20.14 0.0 14 0.00 0.00 0.00 0.00
08/20/19 6:40:26 AM 32 0.0 0.0 52 74 72.4 61.1 29.943 20.14 0.0 14 0.00 0.00 0.00 0.00
08/20/19 6:41:19 AM 32 0.0 0.0 52 73 72.4 61.1 29.943 20.14 0.0 14 0.00 0.00 0.00 0.00
08/20/19 6:42:29 AM 31 0.0 0.0 52 74 72.5 61.1 29.943 20.14 0.0 18 0.00 0.00 0.00 0.00
08/20/19 6:43:19 AM 32 0.0 0.0 52 74 72.5 61.1 29.943 20.14 0.0 19 0.00 0.00 0.00 0.00
08/20/19 6:44:32 AM 32 0.0 0.0 52 73 72.4 61.1 29.944 20.14 0.0 21 0.00 0.00 0.00 0.00
08/20/19 6:45:28 AM 31 0.0 0.0 52 73 72.4 61.1 29.944 20.14 0.0 23 0.00 0.00 0.00 0.00
08/20/19 6:46:19 AM 32 0.0 0.0 52 73 72.5 61.1 29.945 20.14 0.0 25 0.00 0.00 0.00 0.00
08/20/19 6:47:32 AM 31 0.0 0.0 52 73 72.5 61.1 29.946 20.14 0.0 26 0.00 0.00 0.00 0.00
08/20/19 6:48:20 AM 31 0.0 0.0 52 73 72.5 61.2 29.946 20.14 0.0 28 0.00 0.00 0.00 0.00
08/20/19 6:49:32 AM 32 0.0 0.0 52 73 72.4 61.2 29.944 20.14 0.0 30 0.00 0.00 0.00 0.00
08/20/19 6:50:26 AM 31 0.0 0.0 52 73 72.4 61.2 29.944 20.14 0.0 32 0.00 0.00 0.00 0.00
08/20/19 6:51:20 AM 32 0.0 0.0 52 73 72.4 61.3 29.945 20.14 0.0 32 0.00 0.00 0.00 0.00
08/20/19 6:52:32 AM 32 0.0 0.0 52 73 72.4 61.4 29.946 20.14 0.0 37 0.00 0.00 0.00 0.00
08/20/19 6:53:20 AM 32 0.0 0.0 52 73 72.4 61.4 29.946 20.14 0.0 39 0.00 0.00 0.00 0.00
08/20/19 6:54:32 AM 32 0.0 0.0 52 73 72.4 61.4 29.945 20.14 0.0 40 0.00 0.00 0.00 0.00
08/20/19 6:55:29 AM 32 0.0 0.0 52 73 72.3 61.5 29.945 20.14 0.0 42 0.00 0.00 0.00 0.00
08/20/19 6:56:20 AM 32 0.0 0.0 52 73 72.3 61.6 29.947 20.14 0.0 44 0.00 0.00 0.00 0.00
08/20/19 6:57:32 AM 32 0.0 0.0 52 73 72.4 61.6 29.945 20.14 0.0 49 0.00 0.00 0.00 0.00
08/20/19 6:58:26 AM 32 0.0 0.0 52 73 72.4 61.7 29.945 20.14 0.0 49 0.00 0.00 0.00 0.00
08/20/19 6:59:32 AM 31 0.0 0.0 52 73 72.3 61.8 29.946 20.14 0.0 54 0.00 0.00 0.00 0.00
08/20/19 7:00:26 AM 32 0.0 0.0 52 73 72.3 61.8 29.946 20.14 0.0 56 0.00 0.00 0.00 0.00
08/20/19 7:01:17 AM 32 0.0 0.0 52 73 72.3 61.8 29.942 20.14 0.0 58 0.00 0.00 0.00 0.00
08/20/19 7:02:32 AM 32 0.0 0.0 52 73 72.3 61.9 29.946 20.14 0.0 62 0.00 0.00 0.00 0.00
08/20/19 7:03:23 AM 32 0.0 0.0 52 73 72.3 62.0 29.946 20.14 0.0 63 0.00 0.00 0.00 0.00
08/20/19 7:04:32 AM 32 0.0 0.0 52 73 72.3 62.1 29.945 20.14 0.0 67 0.00 0.00 0.00 0.00
08/20/19 7:05:26 AM 32 0.0 0.0 52 73 72.3 62.1 29.945 20.14 0.0 70 0.00 0.00 0.00 0.00
08/20/19 7:06:20 AM 31 0.0 0.0 52 73 72.3 62.1 29.944 20.14 0.0 70 0.00 0.00 0.00 0.00
08/20/19 7:07:32 AM 32 0.0 0.0 52 73 72.3 62.2 29.946 20.14 0.0 76 0.00 0.00 0.00 0.00
08/20/19 7:08:26 AM 32 0.0 0.0 52 73 72.3 62.2 29.946 20.14 0.0 76 0.00 0.00 0.00 0.00
08/20/19 7:09:17 AM 32 0.0 0.0 52 73 72.3 62.3 29.947 20.14 0.0 81 0.00 0.00 0.00 0.00
08/20/19 7:10:26 AM 32 0.0 0.0 52 73 72.3 62.3 29.948 20.14 0.0 84 0.00 0.00 0.00 0.00
08/20/19 7:11:20 AM 32 0.0 0.0 52 73 72.3 62.5 29.948 20.14 0.0 88 0.00 0.00 0.00 0.00
08/20/19 7:12:32 AM 32 0.0 0.0 52 73 72.3 62.7 29.951 20.14 0.0 93 0.00 0.00 0.00 0.00
08/20/19 7:13:26 AM 32 0.0 0.0 52 73 72.3 62.8 29.951 20.14 0.0 97 0.00 0.00 0.00 0.00
08/20/19 7:14:17 AM 32 0.0 0.0 52 73 72.2 62.9 29.949 20.14 0.0 100 0.00 0.00 0.00 0.00
08/20/19 7:15:29 AM 32 0.0 0.0 52 73 72.2 63.1 29.954 20.14 0.0 102 0.00 0.00 0.00 0.00
08/20/19 7:16:20 AM 32 0.0 0.0 52 73 72.2 63.3 29.954 20.14 0.0 105 0.00 0.00 0.00 0.00
08/20/19 7:17:32 AM 32 0.0 0.0 52 73 72.2 63.5 29.951 20.14 0.0 109 0.00 0.00 0.00 0.00
08/20/19 7:18:26 AM 32 0.0 0.0 52 73 72.2 63.6 29.951 20.14 0.0 113 0.00 0.00 0.00 0.00
08/20/19 7:19:17 AM 32 0.0 0.0 52 73 72.2 63.8 29.951 20.14 0.0 116 0.00 0.00 0.00 0.00
08/20/19 7:20:26 AM 32 0.0 0.0 52 73 72.1 63.9 29.955 20.14 0.0 120 0.00 0.00 0.00 0.00
08/20/19 7:21:20 AM 32 0.0 0.0 52 73 72.1 64.1 29.955 20.14 0.0 123 0.00 0.00 0.00 0.00
08/20/19 7:22:32 AM 32 0.0 0.0 52 72 72.1 64.3 29.954 20.14 0.0 127 0.00 0.00 0.00 0.00
08/20/19 7:23:26 AM 32 0.0 0.0 52 72 72.1 64.5 29.954 20.14 0.0 130 0.00 0.00 0.00 0.00
08/20/19 7:24:17 AM 32 0.0 0.0 52 71 72.1 64.7 29.952 20.14 0.0 134 0.00 0.00 0.00 0.00
08/20/19 7:25:33 AM 32 0.0 0.0 52 71 72.0 64.9 29.951 20.14 0.0 137 0.00 0.00 0.00 0.00
08/20/19 7:26:20 AM 32 0.0 0.0 52 70 72.0 65.1 29.951 20.14 0.0 141 0.00 0.00 0.00 0.00
08/20/19 7:27:33 AM 32 0.0 0.0 52 70 71.9 65.3 29.953 20.14 0.0 148 0.00 0.00 0.00 0.00
08/20/19 7:28:26 AM 32 0.0 0.0 52 70 71.9 65.4 29.953 20.14 0.0 151 0.00 0.00 0.00 0.00
08/20/19 7:29:17 AM 32 0.0 0.0 52 69 72.0 65.6 29.952 20.14 0.0 155 0.00 0.00 0.00 0.00
08/20/19 7:30:30 AM 32 0.0 0.0 52 69 72.0 65.8 29.953 20.14 0.0 156 0.00 0.00 0.00 0.00
08/20/19 7:31:21 AM 32 0.0 0.0 52 68 72.0 65.9 29.953 20.14 0.0 162 0.00 0.00 0.00 0.00
08/20/19 7:32:33 AM 32 0.0 0.0 52 68 71.9 66.1 29.955 20.14 0.0 165 0.00 0.00 0.00 0.00
08/20/19 7:33:27 AM 32 0.0 0.0 52 67 71.9 66.3 29.955 20.14 0.0 167 0.00 0.00 0.00 0.00
08/20/19 7:34:21 AM 32 0.0 0.0 52 67 71.9 66.5 29.951 20.14 0.0 171 0.00 0.00 0.00 0.00
08/20/19 7:35:33 AM 32 0.0 0.0 52 67 71.9 66.6 29.954 20.14 0.0 176 0.00 0.00 0.00 0.00
08/20/19 7:36:27 AM 32 0.0 0.0 52 67 71.9 66.7 29.954 20.14 0.0 179 0.00 0.00 0.00 0.00
08/20/19 7:37:36 AM 32 0.0 0.0 52 68 71.9 66.8 29.953 20.14 0.0 181 0.00 0.00 0.00 0.00
08/20/19 7:38:27 AM 32 0.0 0.0 52 68 71.9 66.9 29.951 20.14 0.0 185 0.00 0.00 0.00 0.00
08/20/19 7:39:21 AM 32 0.0 0.0 52 67 71.9 67.1 29.951 20.14 0.0 185 0.00 0.00 0.00 0.00
08/20/19 7:40:33 AM 32 0.0 0.0 52 66 71.9 67.2 29.952 20.14 0.0 195 0.00 0.00 0.00 0.00
08/20/19 7:41:24 AM 32 0.0 0.0 52 66 71.9 67.4 29.952 20.14 0.0 195 0.00 0.00 0.00 0.00
08/20/19 7:42:33 AM 32 0.0 0.0 52 65 71.9 67.6 29.953 20.14 0.0 202 0.00 0.00 0.00 0.00
08/20/19 7:43:27 AM 32 0.0 0.0 52 65 71.9 67.8 29.953 20.14 0.5 206 0.00 0.00 0.00 0.00
08/20/19 7:44:21 AM 32 0.0 0.0 52 65 71.9 68.0 29.953 20.14 0.5 209 0.00 0.00 0.00 0.00
08/20/19 7:45:33 AM 32 0.0 0.0 52 65 71.9 68.1 29.954 20.14 0.5 213 0.00 0.00 0.00 0.00
08/20/19 7:46:27 AM 32 0.0 0.0 53 65 71.8 68.3 29.951 20.14 0.5 214 0.00 0.00 0.00 0.00
08/20/19 7:47:18 AM 32 0.0 0.0 53 65 71.8 68.3 29.951 20.14 0.5 218 0.00 0.00 0.00 0.00
08/20/19 7:48:27 AM 32 0.0 0.0 53 65 71.8 68.6 29.953 20.14 0.5 221 0.00 0.00 0.00 0.00
08/20/19 7:49:21 AM 32 0.0 0.0 53 65 71.8 68.7 29.953 20.14 0.5 225 0.00 0.00 0.00 0.00
08/20/19 7:50:33 AM 32 0.0 0.0 53 64 71.9 68.9 29.954 20.14 0.5 229 0.00 0.00 0.00 0.00
08/20/19 7:51:27 AM 46 0.0 0.0 53 64 71.8 69.0 29.950 20.14 0.6 232 0.00 0.00 0.00 0.00
08/20/19 7:52:18 AM 46 0.0 0.0 53 64 71.8 69.2 29.950 20.14 0.6 236 0.00 0.00 0.00 0.00
08/20/19 7:53:27 AM 46 0.0 0.0 53 64 71.8 69.4 29.952 20.14 0.6 239 0.00 0.00 0.00 0.00
08/20/19 7:54:21 AM 46 0.0 0.0 53 64 71.8 69.5 29.952 20.14 0.6 241 0.00 0.00 0.00 0.00
08/20/19 7:55:37 AM 46 1.0 2.0 53 64 71.9 69.7 29.952 20.14 0.6 244 0.00 0.00 0.00 0.00
08/20/19 7:56:28 AM 46 2.0 3.0 53 64 71.9 69.8 29.952 20.14 0.6 251 0.00 0.00 0.00 0.00
08/20/19 7:57:22 AM 46 2.0 3.0 53 63 71.9 69.9 29.952 20.14 0.6 251 0.00 0.00 0.00 0.00
08/20/19 7:58:28 AM 46 2.0 3.0 53 63 71.9 70.0 29.954 20.14 0.6 258 0.00 0.00 0.00 0.00
08/20/19 7:59:22 AM 46 2.0 3.0 53 63 71.9 70.1 29.954 20.14 0.7 260 0.00 0.00 0.00 0.00
08/20/19 8:00:34 AM 46 2.0 3.0 53 62 71.9 70.2 29.953 20.14 0.7 264 0.00 0.00 0.00 0.00
08/20/19 8:01:28 AM 46 0.0 3.0 53 62 72.0 70.3 29.953 20.14 0.7 267 0.00 0.00 0.00 0.00
08/20/19 8:02:25 AM 46 0.0 3.0 53 62 71.9 70.4 29.954 20.14 0.7 271 0.00 0.00 0.00 0.00
08/20/19 8:03:19 AM 46 0.0 3.0 53 63 71.9 70.5 29.954 20.14 0.7 272 0.00 0.00 0.00 0.00
08/20/19 8:04:29 AM 46 2.0 3.0 53 63 72.0 70.6 29.955 20.14 0.7 276 0.00 0.00 0.00 0.00
08/20/19 8:05:23 AM 46 2.0 3.0 53 63 72.0 70.6 29.955 20.14 0.8 279 0.00 0.00 0.00 0.00
08/20/19 8:06:35 AM 46 2.0 3.0 53 63 72.0 70.7 29.953 20.14 0.8 283 0.00 0.00 0.00 0.00
08/20/19 8:07:29 AM 46 1.0 3.0 53 63 72.1 70.7 29.955 20.14 0.8 287 0.00 0.00 0.00 0.00
08/20/19 8:08:20 AM 46 2.0 3.0 53 64 72.1 70.8 29.955 20.14 0.8 290 0.00 0.00 0.00 0.00
08/20/19 8:09:29 AM 46 2.0 3.0 53 63 72.1 70.8 29.954 20.14 0.8 294 0.00 0.00 0.00 0.00
08/20/19 8:10:23 AM 46 0.0 3.0 54 63 72.1 70.9 29.954 20.14 0.8 294 0.00 0.00 0.00 0.00
08/20/19 8:11:35 AM 46 1.0 3.0 54 64 72.1 71.0 29.954 20.14 0.8 302 0.00 0.00 0.00 0.00
08/20/19 8:12:29 AM 46 2.0 3.0 54 64 72.1 71.1 29.952 20.14 0.9 306 0.00 0.00 0.00 0.00
08/20/19 8:13:20 AM 46 2.0 3.0 54 64 72.1 71.2 29.952 20.14 0.9 308 0.00 0.00 0.00 0.00
08/20/19 8:14:32 AM 46 0.0 3.0 54 63 72.1 71.2 29.956 20.14 0.9 311 0.00 0.00 0.00 0.00
08/20/19 8:15:23 AM 46 0.0 3.0 54 63 72.1 71.3 29.956 20.14 0.9 311 0.00 0.00 0.00 0.00
08/20/19 8:16:36 AM 46 0.0 3.0 54 63 72.2 71.4 29.955 20.14 0.9 318 0.00 0.00 0.00 0.00
08/20/19 8:17:30 AM 46 0.0 3.0 54 64 72.2 71.5 29.954 20.14 1.0 320 0.00 0.00 0.00 0.00
08/20/19 8:18:21 AM 46 2.0 3.0 54 64 72.2 71.6 29.954 20.14 1.0 323 0.00 0.00 0.00 0.00
08/20/19 8:19:36 AM 46 1.0 3.0 54 62 72.2 71.7 29.955 20.14 1.0 329 0.00 0.00 0.00 0.00
08/20/19 8:20:21 AM 49 2.0 3.0 54 62 72.2 71.8 29.955 20.14 1.0 332 0.00 0.00 0.00 0.00
08/20/19 8:21:36 AM 49 1.0 3.0 54 62 72.2 71.9 29.955 20.14 1.0 336 0.00 0.00 0.00 0.00
08/20/19 8:22:27 AM 49 1.0 3.0 55 62 72.2 71.9 29.953 20.14 1.0 338 0.00 0.00 0.00 0.00
08/20/19 8:23:21 AM 49 2.0 3.0 55 62 72.2 72.0 29.953 20.14 1.1 341 0.00 0.00 0.00 0.00
08/20/19 8:24:34 AM 49 2.0 3.0 55 61 72.2 72.1 29.953 20.14 1.1 345 0.00 0.00 0.00 0.00
08/20/19 8:25:28 AM 49 1.0 3.0 55 61 72.2 72.2 29.952 20.14 1.1 348 0.00 0.00 0.00 0.00
08/20/19 8:26:37 AM 49 0.0 3.0 55 61 72.2 72.2 29.954 20.14 1.1 352 0.00 0.00 0.00 0.00
08/20/19 8:27:28 AM 49 0.0 3.0 55 61 72.2 72.3 29.954 20.14 1.1 359 0.00 0.00 0.00 0.00
08/20/19 8:28:22 AM 49 0.0 3.0 55 61 72.2 72.4 29.954 20.14 1.2 362 0.00 0.00 0.00 0.00
08/20/19 8:29:34 AM 49 1.0 3.0 55 61 72.2 72.5 29.954 20.14 1.2 364 0.00 0.00 0.00 0.00
08/20/19 8:30:28 AM 49 1.0 3.0 55 60 72.3 72.6 29.954 20.14 1.2 367 0.00 0.00 0.00 0.00
08/20/19 8:31:16 AM 49 2.0 3.0 55 60 72.3 72.6 29.954 20.14 1.2 371 0.00 0.00 0.00 0.00
08/20/19 8:32:29 AM 49 2.0 3.0 55 60 72.3 72.7 29.953 20.14 1.2 374 0.00 0.00 0.00 0.00
08/20/19 8:33:23 AM 50 2.0 3.0 55 59 72.3 72.8 29.953 20.14 1.3 378 0.00 0.00 0.00 0.00
08/20/19 8:34:35 AM 50 1.0 3.0 55 58 72.3 72.8 29.956 20.14 1.3 381 0.00 0.00 0.00 0.00
08/20/19 8:35:29 AM 169 2.0 4.0 55 58 72.3 72.9 29.955 20.14 1.3 385 0.00 0.00 0.00 0.00
08/20/19 8:36:20 AM 169 2.0 4.0 55 58 72.3 72.9 29.955 20.14 1.3 388 0.00 0.00 0.00 0.00
08/20/19 8:37:30 AM 169 1.0 4.0 55 57 72.3 73.1 29.952 20.14 1.3 390 0.00 0.00 0.00 0.00
08/20/19 8:38:21 AM 169 0.0 4.0 55 56 72.3 73.1 29.952 20.14 1.3 394 0.00 0.00 0.00 0.00
08/20/19 8:39:36 AM 170 1.0 4.0 55 56 72.3 73.3 29.951 20.14 1.4 401 0.00 0.00 0.00 0.00
08/20/19 8:40:27 AM 170 2.0 4.0 55 57 72.3 73.4 29.951 20.14 1.4 401 0.00 0.00 0.00 0.00
08/20/19 8:41:21 AM 170 2.0 4.0 55 58 72.3 73.5 29.951 20.14 1.4 404 0.00 0.00 0.00 0.00
08/20/19 8:42:30 AM 170 1.0 4.0 55 58 72.3 73.5 29.951 20.14 1.4 411 0.00 0.00 0.00 0.00
08/20/19 8:43:21 AM 170 1.0 4.0 55 57 72.3 73.6 29.951 20.14 1.4 413 0.00 0.00 0.00 0.00
08/20/19 8:44:37 AM 170 4.0 4.0 55 56 72.3 73.7 29.950 20.14 1.5 417 0.00 0.00 0.00 0.00
08/20/19 8:45:31 AM 170 2.0 4.0 55 56 72.3 73.7 29.952 20.14 1.5 422 0.00 0.00 0.00 0.00
08/20/19 8:46:22 AM 170 2.0 4.0 55 56 72.3 73.8 29.952 20.14 1.5 424 0.00 0.00 0.00 0.00
08/20/19 8:47:28 AM 170 1.0 4.0 55 56 72.3 73.9 29.949 20.14 1.6 427 0.00 0.00 0.00 0.00
08/20/19 8:48:22 AM 170 1.0 4.0 55 55 72.3 74.0 29.949 20.14 1.6 427 0.00 0.00 0.00 0.00
08/20/19 8:49:35 AM 170 2.0 4.0 55 55 72.3 74.0 29.949 20.14 1.6 434 0.00 0.00 0.00 0.00
08/20/19 8:50:29 AM 170 0.0 4.0 55 55 72.3 74.1 29.952 20.14 1.6 436 0.00 0.00 0.00 0.00
08/20/19 8:51:20 AM 170 2.0 4.0 55 55 72.3 74.2 29.952 20.14 1.6 436 0.00 0.00 0.00 0.00
08/20/19 8:52:32 AM 170 1.0 4.0 55 55 72.4 74.3 29.950 20.14 1.7 443 0.00 0.00 0.00 0.00
08/20/19 8:53:23 AM 170 1.0 4.0 55 54 72.4 74.3 29.950 20.14 1.7 446 0.00 0.00 0.00 0.00
08/20/19 8:54:35 AM 171 2.0 4.0 55 55 72.4 74.4 29.950 20.14 1.7 450 0.00 0.00 0.00 0.00
08/20/19 8:55:29 AM 171 2.0 4.0 55 55 72.4 74.5 29.951 20.14 1.7 454 0.00 0.00 0.00 0.00
08/20/19 8:56:21 AM 171 2.0 4.0 55 55 72.4 74.6 29.951 20.14 1.8 457 0.00 0.00 0.00 0.00
08/20/19 8:57:33 AM 171 2.0 4.0 55 54 72.5 74.7 29.948 20.14 1.8 462 0.00 0.00 0.00 0.00
08/20/19 8:58:21 AM 171 1.0 4.0 55 54 72.5 74.8 29.948 20.14 1.8 466 0.00 0.00 0.00 0.00
08/20/19 8:59:33 AM 171 1.0 4.0 55 54 72.5 74.8 29.951 20.14 1.9 469 0.00 0.00 0.00 0.00
08/20/19 9:00:28 AM 171 1.0 4.0 55 54 72.5 74.9 29.951 20.14 1.9 473 0.00 0.00 0.00 0.00
08/20/19 9:01:19 AM 171 2.0 4.0 55 54 72.5 75.0 29.951 20.14 1.9 476 0.00 0.00 0.00 0.00
08/20/19 9:02:34 AM 171 1.0 4.0 55 53 72.6 75.1 29.950 20.14 1.9 478 0.00 0.00 0.00 0.00
08/20/19 9:03:25 AM 171 0.0 4.0 55 53 72.6 75.2 29.950 20.14 1.9 482 0.00 0.00 0.00 0.00
08/20/19 9:04:34 AM 165 4.0 4.0 55 53 72.6 75.3 29.948 20.14 2.0 485 0.00 0.00 0.00 0.00
08/20/19 9:05:29 AM 165 2.0 4.0 55 53 72.6 75.4 29.948 20.14 2.0 489 0.00 0.00 0.00 0.00
08/20/19 9:06:23 AM 165 1.0 4.0 55 52 72.6 75.5 29.948 20.14 2.0 492 0.00 0.00 0.00 0.00
08/20/19 9:07:35 AM 165 1.0 4.0 55 52 72.7 75.7 29.951 20.14 2.1 496 0.00 0.00 0.00 0.00
08/20/19 9:08:26 AM 165 1.0 4.0 55 52 72.7 75.8 29.947 20.14 2.1 497 0.00 0.00 0.00 0.00
08/20/19 9:09:35 AM 165 0.0 4.0 55 51 72.8 76.0 29.949 20.14 2.1 503 0.00 0.00 0.00 0.00
08/20/19 9:10:30 AM 163 1.0 4.0 55 51 72.8 76.0 29.947 20.14 2.1 503 0.00 0.00 0.00 0.00
08/20/19 9:11:20 AM 157 2.0 4.0 55 51 72.8 76.2 29.947 20.14 2.2 506 0.00 0.00 0.00 0.00
08/20/19 9:12:36 AM 157 2.0 4.0 55 50 72.8 76.3 29.947 20.14 2.2 512 0.00 0.00 0.00 0.00
08/20/19 9:13:27 AM 157 1.0 4.0 55 50 72.8 76.5 29.948 20.14 2.2 519 0.00 0.00 0.00 0.00
08/20/19 9:14:21 AM 157 1.0 4.0 55 49 72.8 76.5 29.948 20.14 2.2 519 0.00 0.00 0.00 0.00
08/20/19 9:15:30 AM 157 0.0 4.0 55 49 72.9 76.7 29.947 20.14 2.3 524 0.00 0.00 0.00 0.00
08/20/19 9:16:21 AM 157 2.0 4.0 55 49 72.9 76.7 29.947 20.14 2.3 527 0.00 0.00 0.00 0.00
08/20/19 9:17:37 AM 157 1.0 4.0 55 49 72.8 76.9 29.947 20.14 2.3 531 0.00 0.00 0.00 0.00
08/20/19 9:18:28 AM 200 2.0 4.0 55 49 72.8 77.0 29.947 20.14 2.4 534 0.00 0.00 0.00 0.00
08/20/19 9:19:22 AM 200 1.0 4.0 55 49 72.8 77.1 29.947 20.14 2.4 536 0.00 0.00 0.00 0.00
08/20/19 9:20:31 AM 200 1.0 4.0 55 49 72.9 77.2 29.949 20.14 2.4 538 0.00 0.00 0.00 0.00
08/20/19 9:21:22 AM 199 2.0 4.0 55 49 72.9 77.3 29.949 20.14 2.4 541 0.00 0.00 0.00 0.00
08/20/19 9:22:35 AM 199 0.0 4.0 55 48 72.9 77.4 29.948 20.14 2.5 545 0.00 0.00 0.00 0.00
08/20/19 9:23:29 AM 199 0.0 4.0 55 48 72.9 77.5 29.947 20.14 2.5 547 0.00 0.00 0.00 0.00
08/20/19 9:24:20 AM 199 1.0 4.0 55 48 72.9 77.6 29.947 20.14 2.5 550 0.00 0.00 0.00 0.00
08/20/19 9:25:32 AM 199 0.0 4.0 55 47 72.9 77.7 29.948 20.14 2.6 555 0.00 0.00 0.00 0.00
08/20/19 9:26:24 AM 199 0.0 4.0 55 47 72.9 77.8 29.948 20.14 2.6 557 0.00 0.00 0.00 0.00
08/20/19 9:27:18 AM 185 2.0 4.0 55 47 72.9 78.0 29.946 20.14 2.6 561 0.00 0.00 0.00 0.00
08/20/19 9:28:30 AM 185 2.0 4.0 55 47 72.9 78.2 29.947 20.14 2.6 561 0.00 0.00 0.00 0.00
08/20/19 9:29:21 AM 185 3.0 4.0 55 47 72.9 78.4 29.947 20.14 2.7 568 0.00 0.00 0.00 0.00
08/20/19 9:30:37 AM 185 2.0 4.0 55 46 73.0 78.4 29.947 20.14 2.7 573 0.00 0.00 0.00 0.00
08/20/19 9:31:25 AM 185 1.0 4.0 55 46 73.0 78.5 29.947 20.14 2.7 577 0.00 0.00 0.00 0.00
08/20/19 9:32:16 AM 185 2.0 4.0 55 46 73.0 78.5 29.951 20.14 2.8 578 0.00 0.00 0.00 0.00
08/20/19 9:33:28 AM 185 2.0 4.0 55 47 72.9 78.7 29.950 20.14 2.8 582 0.00 0.00 0.00 0.00
08/20/19 9:34:23 AM 185 2.0 4.0 55 47 72.9 78.8 29.950 20.14 2.8 584 0.00 0.00 0.00 0.00
08/20/19 9:35:38 AM 185 3.0 4.0 55 47 73.0 79.0 29.947 20.14 2.9 587 0.00 0.00 0.00 0.00
08/20/19 9:36:26 AM 187 3.0 4.0 55 46 73.0 79.1 29.947 20.14 2.9 587 0.00 0.00 0.00 0.00
08/20/19 9:37:17 AM 208 3.0 4.0 55 46 73.0 79.3 29.950 20.14 2.9 594 0.00 0.00 0.00 0.00
08/20/19 9:38:32 AM 207 2.0 4.0 55 44 73.0 79.4 29.950 20.14 2.9 596 0.00 0.00 0.00 0.00
08/20/19 9:39:24 AM 208 2.0 4.0 55 43 73.0 79.4 29.950 20.14 3.0 599 0.00 0.00 0.00 0.00
08/20/19 9:40:36 AM 208 1.0 4.0 55 43 73.0 79.5 29.948 20.14 3.0 606 0.00 0.00 0.00 0.00
08/20/19 9:41:30 AM 207 0.0 4.0 55 44 73.0 79.6 29.950 20.14 3.0 608 0.00 0.00 0.00 0.00
08/20/19 9:42:18 AM 207 2.0 4.0 55 44 73.0 79.7 29.950 20.14 3.1 608 0.00 0.00 0.00 0.00
08/20/19 9:43:31 AM 207 0.0 4.0 55 42 73.0 79.8 29.950 20.14 3.1 615 0.00 0.00 0.00 0.00
08/20/19 9:44:22 AM 190 2.0 4.0 55 43 73.0 79.9 29.950 20.14 3.1 617 0.00 0.00 0.00 0.00
08/20/19 9:45:37 AM 190 1.0 4.0 55 43 73.0 80.1 29.950 20.14 3.2 619 0.00 0.00 0.00 0.00
08/20/19 9:46:28 AM 190 1.0 4.0 55 42 73.0 80.2 29.950 20.14 3.2 622 0.00 0.00 0.00 0.00
08/20/19 9:47:20 AM 190 1.0 4.0 55 42 73.0 80.3 29.950 20.14 3.2 626 0.00 0.00 0.00 0.00
08/20/19 9:48:32 AM 189 2.0 4.0 55 42 73.0 80.4 29.950 20.14 3.3 629 0.00 0.00 0.00 0.00
08/20/19 9:49:23 AM 175 3.0 4.0 55 42 73.0 80.6 29.950 20.14 3.3 631 0.00 0.00 0.00 0.00
08/20/19 9:50:17 AM 175 2.0 4.0 55 41 73.0 80.6 29.951 20.14 3.3 633 0.00 0.00 0.00 0.00
08/20/19 9:51:29 AM 176 1.0 4.0 55 41 73.1 80.7 29.949 20.14 3.3 636 0.00 0.00 0.00 0.00
08/20/19 9:52:23 AM 176 0.0 4.0 55 41 73.1 80.8 29.949 20.14 3.4 640 0.00 0.00 0.00 0.00
08/20/19 9:53:33 AM 165 2.0 6.0 55 41 73.0 80.9 29.948 20.14 3.4 642 0.00 0.00 0.00 0.00
08/20/19 9:54:24 AM 165 1.0 6.0 55 41 73.0 81.1 29.948 20.14 3.4 643 0.00 0.00 0.00 0.00
08/20/19 9:55:18 AM 165 2.0 6.0 55 42 73.1 81.3 29.949 20.14 3.4 649 0.00 0.00 0.00 0.00
08/20/19 9:56:31 AM 165 1.0 6.0 55 41 73.1 81.5 29.947 20.14 3.5 654 0.00 0.00 0.00 0.00
08/20/19 9:57:22 AM 165 0.0 6.0 55 41 73.1 81.6 29.947 20.14 3.5 654 0.00 0.00 0.00 0.00
08/20/19 9:58:31 AM 165 1.0 6.0 55 41 73.2 81.7 29.947 20.14 3.6 659 0.00 0.00 0.00 0.00
08/20/19 9:59:25 AM 165 0.0 6.0 55 40 73.2 81.8 29.947 20.14 3.6 663 0.00 0.00 0.00 0.00
08/20/19 10:00:17 AM 165 2.0 6.0 55 40 73.2 81.8 29.948 20.14 3.6 664 0.00 0.00 0.00 0.00
08/20/19 10:01:38 AM 152 2.0 6.0 55 40 73.3 82.0 29.950 20.14 3.7 668 0.00 0.00 0.00 0.00
08/20/19 10:02:29 AM 153 3.0 6.0 55 39 73.2 82.0 29.949 20.14 3.7 668 0.00 0.00 0.00 0.00
08/20/19 10:03:23 AM 152 3.0 6.0 55 39 73.2 82.1 29.949 20.14 3.7 673 0.00 0.00 0.00 0.00
08/20/19 10:04:33 AM 152 2.0 6.0 55 39 73.3 82.1 29.949 20.14 3.8 677 0.00 0.00 0.00 0.00
08/20/19 10:05:27 AM 152 2.0 6.0 55 39 73.3 82.1 29.949 20.14 3.8 679 0.00 0.00 0.00 0.00
08/20/19 10:06:18 AM 152 2.0 6.0 55 39 73.3 82.2 29.947 20.14 3.8 679 0.00 0.00 0.00 0.00
08/20/19 10:07:30 AM 158 5.0 6.0 55 38 73.3 82.2 29.951 20.14 3.8 684 0.00 0.00 0.00 0.00
08/20/19 10:08:25 AM 161 4.0 6.0 55 36 73.3 82.3 29.951 20.14 3.9 686 0.00 0.00 0.00 0.00
08/20/19 10:09:34 AM 161 0.0 6.0 55 37 73.4 82.3 29.947 20.14 3.9 687 0.00 0.00 0.00 0.00
08/20/19 10:10:25 AM 161 1.0 6.0 55 37 73.4 82.3 29.947 20.14 3.9 691 0.00 0.00 0.00 0.00
08/20/19 10:11:17 AM 161 4.0 6.0 55 37 73.4 82.4 29.949 20.14 4.0 694 0.00 0.00 0.00 0.00
08/20/19 10:12:29 AM 161 2.0 6.0 55 37 73.5 82.6 29.950 20.14 4.0 700 0.00 0.00 0.00 0.00
08/20/19 10:13:23 AM 161 1.0 6.0 55 38 73.5 82.7 29.950 20.14 4.0 701 0.00 0.00 0.00 0.00
08/20/19 10:14:33 AM 161 1.0 6.0 55 36 73.5 82.8 29.950 20.14 4.1 707 0.00 0.00 0.00 0.00
08/20/19 10:15:24 AM 161 4.0 6.0 55 36 73.5 82.9 29.950 20.14 4.1 707 0.00 0.00 0.00 0.00
08/20/19 10:16:18 AM 171 1.0 6.0 55 37 73.5 83.0 29.950 20.14 4.1 708 0.00 0.00 0.00 0.00
08/20/19 10:17:31 AM 171 2.0 6.0 55 36 73.6 83.2 29.951 20.14 4.2 712 0.00 0.00 0.00 0.00
08/20/19 10:18:22 AM 171 2.0 6.0 55 36 73.6 83.4 29.951 20.14 4.2 715 0.00 0.00 0.00 0.00
08/20/19 10:19:37 AM 165 4.0 6.0 55 34 73.6 83.6 29.946 20.14 4.2 717 0.00 0.00 0.00 0.00
08/20/19 10:20:25 AM 163 4.0 6.0 55 34 73.6 83.6 29.946 20.14 4.2 717 0.00 0.00 0.00 0.00
08/20/19 10:21:17 AM 162 4.0 6.0 55 32 73.7 83.6 29.949 20.14 4.3 719 0.00 0.00 0.00 0.00
08/20/19 10:22:29 AM 107 1.0 6.0 55 31 73.7 83.6 29.949 20.14 4.3 721 0.00 0.00 0.00 0.00
08/20/19 10:23:23 AM 107 0.0 6.0 55 34 73.7 83.7 29.949 20.14 4.3 726 0.00 0.00 0.00 0.00
08/20/19 10:24:36 AM 107 0.0 6.0 55 34 73.8 83.8 29.947 20.14 4.4 729 0.00 0.00 0.00 0.00
08/20/19 10:25:27 AM 139 4.0 6.0 55 35 73.8 83.9 29.947 20.14 4.4 729 0.00 0.00 0.00 0.00
08/20/19 10:26:18 AM 123 3.0 6.0 55 35 73.8 84.0 29.949 20.14 4.4 731 0.00 0.00 0.00 0.00
08/20/19 10:27:30 AM 126 2.0 6.0 55 35 73.9 84.0 29.949 20.14 4.4 737 0.00 0.00 0.00 0.00
08/20/19 10:28:24 AM 119 3.0 6.0 55 35 73.9 84.0 29.949 20.14 4.5 738 0.00 0.00 0.00 0.00
08/20/19 10:29:16 AM 122 1.0 6.0 55 35 73.9 84.0 29.949 20.14 4.5 738 0.00 0.00 0.00 0.00
08/20/19 10:30:28 AM 121 1.0 6.0 55 35 73.9 84.1 29.947 20.14 4.5 744 0.00 0.00 0.00 0.00
08/20/19 10:31:16 AM 121 1.0 6.0 55 35 73.9 84.2 29.947 20.14 4.5 745 0.00 0.00 0.00 0.00
08/20/19 10:32:32 AM 124 1.0 6.0 55 35 74.0 84.4 29.946 20.14 4.5 749 0.00 0.00 0.00 0.00
08/20/19 10:33:23 AM 124 1.0 6.0 55 35 74.0 84.5 29.946 20.14 4.7 751 0.00 0.00 0.00 0.00
08/20/19 10:34:17 AM 124 1.0 6.0 55 35 74.0 84.6 29.946 20.14 4.7 752 0.00 0.00 0.00 0.00
08/20/19 10:35:30 AM 120 2.0 6.0 55 34 74.1 84.7 29.948 20.14 4.7 756 0.00 0.00 0.00 0.00
08/20/19 10:36:18 AM 126 0.0 6.0 55 34 74.1 84.7 29.948 20.14 4.7 756 0.00 0.00 0.00 0.00
08/20/19 10:37:33 AM 206 2.0 6.0 55 35 74.1 84.8 29.946 20.14 4.8 756 0.00 0.00 0.00 0.00
08/20/19 10:38:24 AM 206 2.0 6.0 55 35 74.1 84.9 29.946 20.14 4.8 761 0.00 0.00 0.00 0.00
08/20/19 10:39:19 AM 205 3.0 6.0 55 35 74.1 85.1 29.949 20.14 4.8 765 0.00 0.00 0.00 0.00
08/20/19 10:40:31 AM 203 3.0 6.0 55 35 74.1 85.2 29.947 20.14 4.9 766 0.00 0.00 0.00 0.00
08/20/19 10:41:22 AM 186 3.0 6.0 55 35 74.1 85.3 29.947 20.14 4.9 768 0.00 0.00 0.00 0.00
08/20/19 10:42:32 AM 148 4.0 6.0 55 34 74.2 85.3 29.946 20.14 4.9 773 0.00 0.00 0.00 0.00
08/20/19 10:43:26 AM 148 3.0 6.0 55 33 74.2 85.3 29.946 20.14 4.9 777 0.00 0.00 0.00 0.00
08/20/19 10:44:18 AM 140 3.0 6.0 55 34 74.2 85.4 29.946 20.14 5.0 779 0.00 0.00 0.00 0.00
08/20/19 10:45:33 AM 119 3.0 6.0 55 33 74.2 85.4 29.943 20.14 5.0 777 0.00 0.00 0.00 0.00
08/20/19 10:46:24 AM 120 3.0 6.0 55 32 74.2 85.4 29.943 20.14 5.0 777 0.00 0.00 0.00 0.00
08/20/19 10:47:34 AM 185 4.0 6.0 55 33 74.3 85.4 29.946 20.14 5.0 779 0.00 0.00 0.00 0.00
08/20/19 10:48:25 AM 185 5.0 6.0 55 33 74.3 85.6 29.946 20.14 5.0 779 0.00 0.00 0.00 0.00
08/20/19 10:49:19 AM 185 2.0 6.0 55 33 74.3 85.6 29.945 20.14 5.1 786 0.00 0.00 0.00 0.00
08/20/19 10:50:32 AM 179 3.0 6.0 55 33 74.3 85.7 29.944 20.14 5.1 786 0.00 0.00 0.00 0.00
08/20/19 10:51:23 AM 179 3.0 6.0 55 34 74.3 85.8 29.944 20.14 5.1 789 0.00 0.00 0.00 0.00
08/20/19 10:52:17 AM 179 0.0 6.0 55 34 74.3 85.9 29.945 20.14 5.2 791 0.00 0.00 0.00 0.00
08/20/19 10:53:27 AM 179 2.0 6.0 55 33 74.3 86.0 29.942 20.14 5.2 791 0.00 0.00 0.00 0.00
08/20/19 10:54:18 AM 177 4.0 6.0 55 33 74.3 86.1 29.942 20.14 5.2 795 0.00 0.00 0.00 0.00
08/20/19 10:55:34 AM 180 3.0 6.0 55 33 74.4 86.2 29.942 20.14 5.3 798 0.00 0.00 0.00 0.00
08/20/19 10:56:25 AM 180 1.0 6.0 55 33 74.4 86.3 29.942 20.14 5.3 798 0.00 0.00 0.00 0.00
08/20/19 10:57:19 AM 180 1.0 6.0 55 33 74.4 86.4 29.943 20.14 5.3 802 0.00 0.00 0.00 0.00
08/20/19 10:58:29 AM 180 0.0 6.0 55 31 74.5 86.5 29.941 20.14 5.4 809 0.00 0.00 0.00 0.00
08/20/19 10:59:20 AM 178 2.0 6.0 55 31 74.5 86.7 29.941 20.14 5.4 809 0.00 0.00 0.00 0.00
08/20/19 11:00:32 AM 178 1.0 6.0 55 31 74.5 86.8 29.943 20.14 5.4 809 0.00 0.00 0.00 0.00
08/20/19 11:01:27 AM 178 0.0 6.0 55 32 74.5 86.9 29.943 20.14 5.4 810 0.00 0.00 0.00 0.00
08/20/19 11:02:18 AM 178 1.0 6.0 55 32 74.5 86.9 29.940 20.14 5.5 812 0.00 0.00 0.00 0.00
08/20/19 11:03:27 AM 121 0.0 6.0 55 32 74.6 87.2 29.944 20.14 5.5 816 0.00 0.00 0.00 0.00
08/20/19 11:04:22 AM 112 1.0 6.0 55 31 74.6 87.2 29.944 20.14 5.5 816 0.00 0.00 0.00 0.00
08/20/19 11:05:34 AM 116 2.0 6.0 55 31 74.6 87.3 29.945 20.14 5.6 817 0.00 0.00 0.00 0.00
08/20/19 11:06:28 AM 117 1.0 6.0 55 32 74.7 87.4 29.943 20.14 5.6 819 0.00 0.00 0.00 0.00
08/20/19 11:07:19 AM 117 1.0 6.0 55 32 74.7 87.5 29.943 20.14 5.6 819 0.00 0.00 0.00 0.00
08/20/19 11:08:32 AM 117 1.0 6.0 55 32 74.7 87.5 29.943 20.14 5.6 819 0.00 0.00 0.00 0.00
08/20/19 11:09:20 AM 117 1.0 6.0 55 32 74.7 87.5 29.943 20.14 5.6 821 0.00 0.00 0.00 0.00
08/20/19 11:10:36 AM 115 0.0 6.0 55 33 74.8 87.8 29.942 20.14 5.7 823 0.00 0.00 0.00 0.00
08/20/19 11:11:27 AM 115 0.0 6.0 55 32 74.8 87.9 29.943 20.14 5.7 823 0.00 0.00 0.00 0.00
08/20/19 11:12:18 AM 217 5.0 6.0 55 33 74.8 88.1 29.943 20.14 5.7 826 0.00 0.00 0.00 0.00
08/20/19 11:13:34 AM 219 6.0 8.0 55 33 74.8 88.2 29.939 20.14 5.8 830 0.00 0.00 0.00 0.00
08/20/19 11:14:22 AM 221 4.0 8.0 55 32 74.8 88.3 29.939 20.14 5.8 835 0.00 0.00 0.00 0.00
08/20/19 11:15:38 AM 212 7.0 8.0 55 32 74.9 88.3 29.939 20.14 5.8 837 0.00 0.00 0.00 0.00
08/20/19 11:16:29 AM 226 4.0 8.0 55 31 74.9 88.3 29.938 20.14 5.8 838 0.00 0.00 0.00 0.00
08/20/19 11:17:20 AM 256 3.0 8.0 55 31 74.9 88.3 29.938 20.14 5.9 840 0.00 0.00 0.00 0.00
08/20/19 11:18:33 AM 252 4.0 8.0 55 31 75.0 88.2 29.936 20.14 5.9 844 0.00 0.00 0.00 0.00
08/20/19 11:19:27 AM 239 3.0 8.0 55 32 75.0 88.2 29.936 20.14 5.9 844 0.00 0.00 0.00 0.00
08/20/19 11:20:33 AM 267 3.0 8.0 55 32 74.9 88.2 29.936 20.14 5.9 846 0.00 0.00 0.00 0.00
08/20/19 11:21:28 AM 259 6.0 8.0 55 32 75.0 88.3 29.934 20.14 6.0 847 0.00 0.00 0.00 0.00
08/20/19 11:22:19 AM 243 1.0 8.0 55 31 75.0 88.2 29.934 20.14 6.0 851 0.00 0.00 0.00 0.00
08/20/19 11:23:32 AM 239 3.0 8.0 55 30 75.0 88.2 29.935 20.14 6.0 853 0.00 0.00 0.00 0.00
08/20/19 11:24:26 AM 267 4.0 8.0 55 30 75.0 88.2 29.935 20.14 6.1 854 0.00 0.00 0.00 0.00
08/20/19 11:25:35 AM 267 2.0 8.0 55 30 75.1 88.2 29.931 20.14 6.1 858 0.00 0.00 0.00 0.00
08/20/19 11:26:30 AM 267 2.0 8.0 55 30 75.1 88.1 29.934 20.14 6.1 860 0.00 0.00 0.00 0.00
08/20/19 11:27:21 AM 267 2.0 8.0 55 30 75.1 88.1 29.934 20.14 6.1 860 0.00 0.00 0.00 0.00
08/20/19 11:28:34 AM 284 6.0 8.0 55 30 75.1 88.0 29.930 20.14 6.2 861 0.00 0.00 0.00 0.00
08/20/19 11:29:28 AM 293 3.0 8.0 55 30 75.2 88.0 29.933 20.14 6.2 861 0.00 0.00 0.00 0.00
08/20/19 11:30:19 AM 293 2.0 8.0 55 30 75.2 88.0 29.933 20.14 6.2 863 0.00 0.00 0.00 0.00
08/20/19 11:31:29 AM 287 4.0 8.0 55 32 75.2 88.1 29.928 20.14 6.3 865 0.00 0.00 0.00 0.00
08/20/19 11:32:20 AM 276 3.0 8.0 55 29 75.2 88.1 29.928 20.14 6.3 868 0.00 0.00 0.00 0.00
08/20/19 11:33:35 AM 288 3.0 8.0 55 28 75.2 88.0 29.929 20.14 6.3 867 0.00 0.00 0.00 0.00
08/20/19 11:34:27 AM 299 4.0 8.0 55 28 75.3 88.0 29.931 20.14 6.3 867 0.00 0.00 0.00 0.00
08/20/19 11:35:21 AM 307 5.0 8.0 55 27 75.3 88.0 29.931 20.14 6.4 874 0.00 0.00 0.00 0.00
08/20/19 11:36:31 AM 317 2.0 8.0 55 27 75.3 87.8 29.932 20.14 6.4 874 0.00 0.00 0.00 0.00
08/20/19 11:37:22 AM 316 2.0 8.0 55 27 75.3 87.7 29.932 20.14 6.4 875 0.00 0.00 0.00 0.00
08/20/19 11:38:35 AM 219 3.0 8.0 55 28 75.3 87.8 29.931 20.14 6.5 875 0.00 0.00 0.00 0.00
08/20/19 11:39:29 AM 219 1.0 8.0 55 26 75.3 87.9 29.931 20.14 6.5 875 0.00 0.00 0.00 0.00
08/20/19 11:40:21 AM 219 2.0 8.0 55 27 75.3 87.9 29.931 20.14 6.5 882 0.00 0.00 0.00 0.00
08/20/19 11:41:30 AM 213 5.0 8.0 55 27 75.3 88.1 29.929 20.14 6.5 884 0.00 0.00 0.00 0.00
08/20/19 11:42:21 AM 213 5.0 8.0 55 27 75.3 88.1 29.929 20.14 6.5 884 0.00 0.00 0.00 0.00
08/20/19 11:43:37 AM 213 5.0 8.0 55 27 75.3 88.1 29.929 20.14 6.5 884 0.00 0.00 0.00 0.00
08/20/19 11:44:28 AM 213 5.0 8.0 55 27 75.4 88.1 29.927 20.14 6.5 884 0.00 0.00 0.00 0.00
08/20/19 11:45:23 AM 213 5.0 8.0 55 27 75.4 88.1 29.927 20.14 6.5 884 0.00 0.00 0.00 0.00
08/20/19 11:46:36 AM 213 5.0 8.0 55 27 75.4 88.1 29.928 20.14 6.5 884 0.00 0.00 0.00 0.00
08/20/19 11:47:24 AM 213 5.0 8.0 55 27 75.4 88.1 29.928 20.14 6.5 884 0.00 0.00 0.00 0.00
08/20/19 11:48:15 AM 218 1.0 8.0 55 27 75.5 89.1 29.928 20.14 6.6 884 0.00 0.00 0.00 0.00
08/20/19 11:49:31 AM 218 1.0 8.0 55 26 75.5 89.2 29.929 20.14 6.7 895 0.00 0.00 0.00 0.00
08/20/19 11:50:22 AM 182 5.0 8.0 55 26 75.5 89.3 29.929 20.14 6.7 896 0.00 0.00 0.00 0.00
08/20/19 11:51:34 AM 248 4.0 8.0 55 26 75.5 89.5 29.928 20.14 6.7 896 0.00 0.00 0.00 0.00
08/20/19 11:52:23 AM 240 2.0 8.0 55 26 75.5 89.7 29.928 20.14 6.7 896 0.00 0.00 0.00 0.00
08/20/19 11:53:17 AM 242 2.0 8.0 55 26 75.5 89.9 29.929 20.14 6.7 898 0.00 0.00 0.00 0.00
08/20/19 11:54:30 AM 227 3.0 8.0 55 25 75.5 90.0 29.926 20.14 6.7 898 0.00 0.00 0.00 0.00
08/20/19 11:55:24 AM 231 4.0 8.0 55 25 75.5 90.1 29.926 20.14 6.8 900 0.00 0.00 0.00 0.00
08/20/19 11:56:15 AM 229 4.0 8.0 55 25 75.5 90.2 29.927 20.14 6.8 902 0.00 0.00 0.00 0.00
08/20/19 11:57:28 AM 246 3.0 8.0 55 25 75.5 90.3 29.928 20.14 6.8 905 0.00 0.00 0.00 0.00
08/20/19 11:58:19 AM 247 2.0 8.0 55 25 75.5 90.3 29.928 20.14 6.8 905 0.00 0.00 0.00 0.00
08/20/19 11:59:32 AM 186 5.0 8.0 55 25 75.4 90.4 29.924 20.14 6.9 907 0.00 0.00 0.00 0.00
08/20/19 12:00:23 PM 200 1.0 8.0 55 24 75.4 90.4 29.924 20.14 6.9 909 0.00 0.00 0.00 0.00
08/20/19 12:01:17 PM 251 4.0 8.0 55 26 75.5 90.6 29.925 20.14 6.9 911 0.00 0.00 0.00 0.00
08/20/19 12:02:36 PM 251 2.0 8.0 55 24 75.5 90.8 29.924 20.14 6.9 907 0.00 0.00 0.00 0.00
08/20/19 12:03:24 PM 251 2.0 8.0 55 24 75.5 90.8 29.924 20.14 6.9 907 0.00 0.00 0.00 0.00
08/20/19 12:04:37 PM 251 0.0 8.0 55 22 75.5 90.9 29.926 20.14 6.9 909 0.00 0.00 0.00 0.00
08/20/19 12:05:31 PM 251 1.0 8.0 55 22 75.5 90.9 29.924 20.14 7.0 911 0.00 0.00 0.00 0.00
08/20/19 12:06:23 PM 251 1.0 8.0 55 22 75.5 91.1 29.924 20.14 7.0 911 0.00 0.00 0.00 0.00
08/20/19 12:07:35 PM 267 3.0 8.0 55 24 75.5 91.3 29.923 20.14 6.9 909 0.00 0.00 0.00 0.00
08/20/19 12:08:27 PM 291 4.0 8.0 55 23 75.5 91.3 29.921 20.14 6.9 909 0.00 0.00 0.00 0.00
08/20/19 12:09:36 PM 275 1.0 8.0 55 23 75.5 91.3 29.922 20.14 7.0 916 0.00 0.00 0.00 0.00
08/20/19 12:10:28 PM 168 4.0 8.0 55 22 75.6 91.4 29.921 20.14 7.0 916 0.00 0.00 0.00 0.00
08/20/19 12:11:22 PM 169 1.0 8.0 55 22 75.6 91.4 29.921 20.14 7.1 916 0.00 0.00 0.00 0.00
08/20/19 12:12:35 PM 231 3.0 8.0 55 23 75.6 91.5 29.922 20.14 7.0 914 0.00 0.00 0.00 0.00
08/20/19 12:13:29 PM 233 2.0 8.0 55 25 75.6 91.7 29.920 20.14 7.0 916 0.00 0.00 0.00 0.00
08/20/19 12:14:17 PM 225 6.0 8.0 55 25 75.6 91.8 29.920 20.14 7.1 919 0.00 0.00 0.00 0.00
08/20/19 12:15:30 PM 228 4.0 8.0 55 23 75.7 91.9 29.920 20.14 7.1 919 0.00 0.00 0.00 0.00
08/20/19 12:16:24 PM 217 2.0 8.0 55 22 75.7 91.9 29.920 20.14 7.0 916 0.00 0.00 0.00 0.00
08/20/19 12:17:37 PM 175 4.0 8.0 55 23 75.6 91.9 29.918 20.14 7.0 916 0.00 0.00 0.00 0.00
08/20/19 12:18:28 PM 202 6.0 8.0 55 23 75.6 92.0 29.918 20.14 7.0 914 0.00 0.00 0.00 0.00
08/20/19 12:19:23 PM 188 4.0 8.0 55 24 75.6 92.0 29.918 20.14 7.0 918 0.00 0.00 0.00 0.00
08/20/19 12:20:29 PM 194 3.0 8.0 55 24 75.7 92.1 29.922 20.14 7.0 916 0.00 0.00 0.00 0.00
08/20/19 12:21:24 PM 192 2.0 8.0 55 24 75.7 92.1 29.922 20.14 7.0 916 0.00 0.00 0.00 0.00
08/20/19 12:22:36 PM 250 3.0 8.0 55 23 75.7 92.2 29.921 20.14 7.0 918 0.00 0.00 0.00 0.00
08/20/19 12:23:30 PM 286 3.0 8.0 55 24 75.7 92.2 29.920 20.14 7.0 918 0.00 0.00 0.00 0.00
08/20/19 12:24:22 PM 287 1.0 8.0 55 23 75.7 92.3 29.920 20.14 7.1 921 0.00 0.00 0.00 0.00
08/20/19 12:25:31 PM 287 1.0 8.0 55 23 75.7 92.4 29.918 20.14 7.1 921 0.00 0.00 0.00 0.00
08/20/19 12:26:26 PM 303 3.0 8.0 55 26 75.7 92.5 29.918 20.14 7.1 921 0.00 0.00 0.00 0.00
08/20/19 12:27:17 PM 322 3.0 8.0 55 24 75.7 92.5 29.918 20.14 7.1 925 0.00 0.00 0.00 0.00
08/20/19 12:28:30 PM 288 5.0 8.0 55 24 75.7 92.6 29.918 20.14 7.1 918 0.00 0.00 0.00 0.00
08/20/19 12:29:24 PM 275 6.0 8.0 55 24 75.7 92.6 29.918 20.14 7.1 919 0.00 0.00 0.00 0.00
08/20/19 12:30:30 PM 299 4.0 8.0 55 25 75.7 92.6 29.918 20.14 7.1 921 0.00 0.00 0.00 0.00
08/20/19 12:31:25 PM 313 9.0 9.0 55 23 75.7 92.5 29.918 20.14 7.1 923 0.00 0.00 0.00 0.00
08/20/19 12:32:16 PM 280 2.0 9.0 55 24 75.8 92.4 29.919 20.14 7.1 923 0.00 0.00 0.00 0.00
08/20/19 12:33:29 PM 300 7.0 9.0 55 26 75.7 92.3 29.919 20.14 7.1 925 0.00 0.00 0.00 0.00
08/20/19 12:34:23 PM 300 4.0 9.0 55 23 75.7 92.2 29.919 20.14 7.2 923 0.00 0.00 0.00 0.00
08/20/19 12:35:39 PM 200 6.0 9.0 55 24 75.8 92.1 29.919 20.14 7.2 926 0.00 0.00 0.00 0.00
08/20/19 12:36:24 PM 234 4.0 9.0 55 25 75.8 92.0 29.919 20.14 7.2 925 0.00 0.00 0.00 0.00
08/20/19 12:37:19 PM 225 8.0 9.0 55 25 75.8 92.1 29.917 20.14 7.2 928 0.00 0.00 0.00 0.00
08/20/19 12:38:31 PM 234 4.0 9.0 55 23 75.7 92.2 29.918 20.14 7.2 930 0.00 0.00 0.00 0.00
08/20/19 12:39:23 PM 232 6.0 9.0 55 24 75.7 92.2 29.918 20.14 7.2 930 0.00 0.00 0.00 0.00
08/20/19 12:40:35 PM 234 2.0 9.0 55 23 75.8 92.2 29.917 20.14 7.2 928 0.00 0.00 0.00 0.00
08/20/19 12:41:27 PM 234 0.0 9.0 55 22 75.8 92.2 29.917 20.14 7.2 928 0.00 0.00 0.00 0.00
08/20/19 12:42:21 PM 234 1.0 9.0 55 22 75.8 92.2 29.918 20.14 7.2 928 0.00 0.00 0.00 0.00
08/20/19 12:43:31 PM 234 1.0 9.0 55 22 75.8 92.3 29.916 20.14 7.2 928 0.00 0.00 0.00 0.00
08/20/19 12:44:25 PM 234 1.0 9.0 55 22 75.8 92.4 29.916 20.14 7.2 926 0.00 0.00 0.00 0.00
08/20/19 12:45:23 PM 234 0.0 9.0 55 22 75.8 92.5 29.916 20.14 7.2 928 0.00 0.00 0.00 0.00
08/20/19 12:46:35 PM 221 7.0 9.0 55 23 75.8 92.8 29.915 20.14 7.2 930 0.00 0.00 0.00 0.00
08/20/19 12:47:24 PM 221 5.0 9.0 55 23 75.8 92.9 29.915 20.14 7.2 928 0.00 0.00 0.00 0.00
08/20/19 12:48:15 PM 222 3.0 9.0 55 22 75.8 93.0 29.916 20.14 7.2 926 0.00 0.00 0.00 0.00
08/20/19 12:49:31 PM 247 7.0 9.0 55 23 75.8 93.1 29.916 20.14 7.2 926 0.00 0.00 0.00 0.00
08/20/19 12:50:22 PM 209 7.0 9.0 55 22 75.8 93.2 29.916 20.14 7.2 930 0.00 0.00 0.00 0.00
08/20/19 12:51:35 PM 258 4.0 9.0 55 23 75.8 93.3 29.915 20.14 7.2 933 0.00 0.00 0.00 0.00
08/20/19 12:52:23 PM 267 2.0 9.0 55 23 75.8 93.3 29.915 20.14 7.2 933 0.00 0.00 0.00 0.00
08/20/19 12:53:18 PM 227 3.0 9.0 55 23 75.8 93.3 29.917 20.14 7.3 935 0.00 0.00 0.00 0.00
08/20/19 12:54:30 PM 202 6.0 9.0 55 22 75.8 93.4 29.915 20.14 7.2 933 0.00 0.00 0.00 0.00
08/20/19 12:55:25 PM 198 7.0 9.0 55 23 75.8 93.5 29.915 20.14 7.2 933 0.00 0.00 0.00 0.00
08/20/19 12:56:34 PM 202 5.0 9.0 55 24 75.8 93.6 29.916 20.14 7.2 930 0.00 0.00 0.00 0.00
08/20/19 12:57:29 PM 229 5.0 9.0 55 23 75.8 93.7 29.913 20.14 7.2 930 0.00 0.00 0.00 0.00
08/20/19 12:58:17 PM 272 4.0 9.0 55 23 75.8 93.7 29.913 20.14 7.2 930 0.00 0.00 0.00 0.00
08/20/19 12:59:30 PM 259 7.0 9.0 55 22 75.8 93.7 29.913 20.14 7.2 932 0.00 0.00 0.00 0.00
08/20/19 1:00:22 PM 249 3.0 9.0 55 21 75.8 93.7 29.913 20.14 7.2 933 0.00 0.00 0.00 0.00
08/20/19 1:01:34 PM 266 9.0 9.0 55 22 75.8 93.7 29.912 20.14 7.3 933 0.00 0.00 0.00 0.00
08/20/19 1:02:29 PM 265 4.0 9.0 55 22 75.9 93.6 29.912 20.14 7.2 935 0.00 0.00 0.00 0.00
08/20/19 1:03:35 PM 260 2.0 9.0 55 23 75.8 93.4 29.914 20.14 7.2 932 0.00 0.00 0.00 0.00
08/20/19 1:04:30 PM 256 2.0 9.0 55 23 75.9 93.4 29.911 20.14 7.2 933 0.00 0.00 0.00 0.00
08/20/19 1:05:24 PM 237 3.0 9.0 55 22 75.9 93.5 29.911 20.14 7.2 932 0.00 0.00 0.00 0.00
08/20/19 1:06:37 PM 219 4.0 9.0 55 21 75.9 93.6 29.910 20.14 7.2 932 0.00 0.00 0.00 0.00
08/20/19 1:07:28 PM 224 1.0 9.0 55 21 75.9 93.7 29.909 20.14 7.2 932 0.00 0.00 0.00 0.00
08/20/19 1:08:20 PM 224 0.0 9.0 55 21 75.9 93.8 29.909 20.14 7.2 932 0.00 0.00 0.00 0.00
08/20/19 1:09:29 PM 238 4.0 9.0 55 21 76.0 93.9 29.909 20.14 7.2 933 0.00 0.00 0.00 0.00
08/20/19 1:10:24 PM 225 6.0 9.0 55 23 76.0 94.0 29.909 20.14 7.2 930 0.00 0.00 0.00 0.00
08/20/19 1:11:36 PM 213 6.0 9.0 55 21 76.0 94.2 29.910 20.14 7.2 933 0.00 0.00 0.00 0.00
08/20/19 1:12:28 PM 222 4.0 9.0 55 22 76.0 94.3 29.907 20.14 7.2 933 0.00 0.00 0.00 0.00
08/20/19 1:13:22 PM 216 4.0 9.0 55 21 76.0 94.3 29.907 20.14 7.2 933 0.00 0.00 0.00 0.00
08/20/19 1:14:29 PM 205 3.0 9.0 55 21 76.0 94.3 29.908 20.14 7.1 926 0.00 0.00 0.00 0.00
08/20/19 1:15:27 PM 204 1.0 9.0 55 21 76.0 94.4 29.908 20.14 7.1 925 0.00 0.00 0.00 0.00
08/20/19 1:16:18 PM 162 1.0 9.0 55 20 76.0 94.3 29.907 20.14 7.1 928 0.00 0.00 0.00 0.00
08/20/19 1:17:31 PM 159 1.0 9.0 55 19 76.1 94.3 29.908 20.14 7.2 930 0.00 0.00 0.00 0.00
08/20/19 1:18:22 PM 159 1.0 9.0 55 20 76.1 94.4 29.908 20.14 7.2 932 0.00 0.00 0.00 0.00
08/20/19 1:19:32 PM 207 3.0 9.0 55 20 76.1 94.5 29.908 20.14 7.2 932 0.00 0.00 0.00 0.00
08/20/19 1:20:23 PM 227 3.0 9.0 55 20 76.1 94.6 29.908 20.14 7.2 930 0.00 0.00 0.00 0.00
08/20/19 1:21:18 PM 248 4.0 9.0 55 20 76.1 94.7 29.906 20.14 7.2 933 0.00 0.00 0.00 0.00
08/20/19 1:22:30 PM 251 3.0 9.0 55 19 76.1 94.7 29.906 20.14 7.2 933 0.00 0.00 0.00 0.00
08/20/19 1:23:22 PM 251 0.0 9.0 55 19 76.1 94.8 29.906 20.14 7.2 932 0.00 0.00 0.00 0.00
08/20/19 1:24:35 PM 251 1.0 9.0 55 19 76.2 94.8 29.906 20.14 7.2 932 0.00 0.00 0.00 0.00
08/20/19 1:25:26 PM 251 2.0 9.0 55 19 76.2 94.9 29.906 20.14 7.2 932 0.00 0.00 0.00 0.00
08/20/19 1:26:18 PM 303 5.0 9.0 55 19 76.2 95.0 29.904 20.14 7.2 932 0.00 0.00 0.00 0.00
08/20/19 1:27:30 PM 284 3.0 9.0 55 20 76.2 95.0 29.904 20.14 7.2 932 0.00 0.00 0.00 0.00
08/20/19 1:28:22 PM 299 7.0 9.0 55 19 76.2 95.0 29.904 20.14 7.2 932 0.00 0.00 0.00 0.00
08/20/19 1:29:35 PM 274 6.0 9.0 55 18 76.2 94.8 29.901 20.14 7.2 933 0.00 0.00 0.00 0.00
08/20/19 1:30:23 PM 290 5.0 9.0 55 18 76.2 94.6 29.901 20.14 7.2 933 0.00 0.00 0.00 0.00
08/20/19 1:31:18 PM 296 5.0 9.0 55 18 76.2 94.4 29.905 20.14 7.2 932 0.00 0.00 0.00 0.00
08/20/19 1:32:30 PM 304 3.0 9.0 55 19 76.2 94.1 29.903 20.14 7.1 928 0.00 0.00 0.00 0.00
08/20/19 1:33:22 PM 298 5.0 9.0 55 19 76.2 94.0 29.903 20.14 7.1 926 0.00 0.00 0.00 0.00
08/20/19 1:34:34 PM 299 7.0 9.0 55 18 76.2 93.8 29.903 20.14 7.1 925 0.00 0.00 0.00 0.00
08/20/19 1:35:29 PM 300 8.0 10.0 55 19 76.2 93.7 29.901 20.14 7.1 925 0.00 0.00 0.00 0.00
08/20/19 1:36:17 PM 301 7.0 10.0 55 19 76.2 93.6 29.901 20.14 7.1 923 0.00 0.00 0.00 0.00
08/20/19 1:37:30 PM 306 2.0 10.0 55 19 76.2 93.4 29.902 20.14 7.1 923 0.00 0.00 0.00 0.00
08/20/19 1:38:24 PM 253 4.0 10.0 55 21 76.2 93.5 29.902 20.14 7.0 925 0.00 0.00 0.00 0.00
08/20/19 1:39:16 PM 238 4.0 10.0 55 19 76.2 93.5 29.901 20.14 7.0 921 0.00 0.00 0.00 0.00
08/20/19 1:40:29 PM 252 4.0 10.0 55 20 76.2 93.7 29.901 20.14 7.0 921 0.00 0.00 0.00 0.00
08/20/19 1:41:17 PM 281 3.0 10.0 55 19 76.2 93.8 29.901 20.14 7.0 921 0.00 0.00 0.00 0.00
08/20/19 1:42:33 PM 223 9.0 10.0 55 20 76.3 93.9 29.901 20.14 7.0 918 0.00 0.00 0.00 0.00
08/20/19 1:43:24 PM 245 9.0 10.0 55 20 76.3 94.0 29.901 20.14 7.0 919 0.00 0.00 0.00 0.00
08/20/19 1:44:16 PM 238 3.0 10.0 55 19 76.2 94.1 29.899 20.14 7.0 918 0.00 0.00 0.00 0.00
08/20/19 1:45:31 PM 253 3.0 10.0 55 19 76.2 94.2 29.901 20.14 7.0 919 0.00 0.00 0.00 0.00
08/20/19 1:46:23 PM 264 2.0 10.0 55 18 76.2 94.2 29.901 20.14 7.0 919 0.00 0.00 0.00 0.00
08/20/19 1:47:32 PM 246 4.0 10.0 55 19 76.3 94.4 29.899 20.14 6.9 918 0.00 0.00 0.00 0.00
08/20/19 1:48:24 PM 243 4.0 10.0 55 20 76.3 94.5 29.899 20.14 6.9 916 0.00 0.00 0.00 0.00
08/20/19 1:49:18 PM 259 3.0 10.0 55 19 76.2 94.6 29.898 20.14 6.9 916 0.00 0.00 0.00 0.00
08/20/19 1:50:28 PM 228 5.0 10.0 55 18 76.2 94.7 29.897 20.14 6.9 912 0.00 0.00 0.00 0.00
08/20/19 1:51:23 PM 222 4.0 10.0 55 18 76.2 94.8 29.897 20.14 6.9 914 0.00 0.00 0.00 0.00
08/20/19 1:52:29 PM 219 4.0 10.0 55 17 76.3 94.8 29.898 20.14 6.9 914 0.00 0.00 0.00 0.00
08/20/19 1:53:24 PM 205 2.0 10.0 55 16 76.3 95.0 29.898 20.14 6.8 912 0.00 0.00 0.00 0.00
08/20/19 1:54:37 PM 207 1.0 10.0 55 16 76.3 95.0 29.895 20.14 6.8 907 0.00 0.00 0.00 0.00
08/20/19 1:55:31 PM 207 1.0 10.0 55 16 76.3 95.2 29.898 20.14 6.8 907 0.00 0.00 0.00 0.00
08/20/19 1:56:23 PM 242 3.0 10.0 55 18 76.3 95.3 29.898 20.14 6.7 905 0.00 0.00 0.00 0.00
08/20/19 1:57:32 PM 217 4.0 10.0 55 18 76.3 95.5 29.896 20.14 6.7 898 0.00 0.00 0.00 0.00
08/20/19 1:58:24 PM 218 0.0 10.0 55 18 76.3 95.5 29.896 20.14 6.7 898 0.00 0.00 0.00 0.00
08/20/19 1:59:18 PM 107 2.0 10.0 55 18 76.3 95.5 29.895 20.14 6.7 902 0.00 0.00 0.00 0.00
08/20/19 2:00:31 PM 237 2.0 10.0 55 17 76.3 95.6 29.893 20.14 6.7 902 0.00 0.00 0.00 0.00
08/20/19 2:01:23 PM 237 0.0 10.0 55 17 76.3 95.6 29.893 20.14 6.6 902 0.00 0.00 0.00 0.00
08/20/19 2:02:23 PM 238 0.0 10.0 55 17 76.4 95.6 29.894 20.14 6.6 895 0.00 0.00 0.00 0.00
08/20/19 2:03:33 PM 130 4.0 10.0 55 17 76.4 95.8 29.894 20.14 6.6 893 0.00 0.00 0.00 0.00
08/20/19 2:04:24 PM 214 3.0 10.0 55 17 76.4 95.7 29.894 20.14 6.6 891 0.00 0.00 0.00 0.00
08/20/19 2:05:19 PM 186 9.0 10.0 55 18 76.4 95.7 29.893 20.14 6.5 893 0.00 0.00 0.00 0.00
08/20/19 2:06:32 PM 231 7.0 10.0 55 17 76.4 95.8 29.893 20.14 6.5 893 0.00 0.00 0.00 0.00
08/20/19 2:07:23 PM 205 5.0 10.0 55 18 76.4 95.8 29.893 20.14 6.5 891 0.00 0.00 0.00 0.00
08/20/19 2:08:18 PM 221 6.0 10.0 55 18 76.4 95.9 29.893 20.14 6.4 891 0.00 0.00 0.00 0.00
08/20/19 2:09:25 PM 205 3.0 10.0 55 17 76.5 95.9 29.894 20.14 6.4 893 0.00 0.00 0.00 0.00
08/20/19 2:10:19 PM 205 4.0 10.0 55 17 76.5 95.9 29.894 20.14 6.5 893 0.00 0.00 0.00 0.00
08/20/19 2:11:32 PM 242 3.0 10.0 55 19 76.5 96.0 29.893 20.14 6.5 884 0.00 0.00 0.00 0.00
08/20/19 2:12:24 PM 277 4.0 10.0 55 18 76.5 96.0 29.893 20.14 6.4 884 0.00 0.00 0.00 0.00
08/20/19 2:13:18 PM 184 0.0 10.0 55 18 76.5 96.0 29.892 20.14 6.4 884 0.00 0.00 0.00 0.00
08/20/19 2:14:25 PM 268 4.0 10.0 55 17 76.5 96.0 29.893 20.14 6.3 881 0.00 0.00 0.00 0.00
08/20/19 2:15:20 PM 285 4.0 10.0 55 17 76.5 96.0 29.893 20.14 6.3 877 0.00 0.00 0.00 0.00
08/20/19 2:16:32 PM 294 2.0 10.0 55 17 76.6 96.1 29.888 20.14 6.2 875 0.00 0.00 0.00 0.00
08/20/19 2:17:24 PM 294 1.0 10.0 55 17 76.6 96.0 29.888 20.14 6.2 877 0.00 0.00 0.00 0.00
08/20/19 2:18:18 PM 213 3.0 10.0 55 17 76.6 96.0 29.892 20.14 6.2 875 0.00 0.00 0.00 0.00
08/20/19 2:19:25 PM 244 4.0 10.0 55 18 76.6 96.1 29.889 20.14 6.2 879 0.00 0.00 0.00 0.00
08/20/19 2:20:20 PM 263 4.0 10.0 55 18 76.7 96.1 29.888 20.14 6.2 874 0.00 0.00 0.00 0.00
08/20/19 2:21:32 PM 294 7.0 10.0 55 17 76.7 96.2 29.888 20.14 6.2 874 0.00 0.00 0.00 0.00
08/20/19 2:22:24 PM 268 3.0 10.0 55 17 76.7 96.2 29.888 20.14 6.2 874 0.00 0.00 0.00 0.00
08/20/19 2:23:18 PM 250 9.0 12.0 55 18 76.7 96.2 29.888 20.14 6.2 874 0.00 0.00 0.00 0.00
08/20/19 2:24:31 PM 236 6.0 12.0 55 16 76.7 96.1 29.889 20.14 6.1 872 0.00 0.00 0.00 0.00
08/20/19 2:25:20 PM 302 5.0 12.0 55 17 76.7 96.1 29.889 20.14 6.1 870 0.00 0.00 0.00 0.00
08/20/19 2:26:33 PM 292 5.0 12.0 55 16 76.7 96.1 29.887 20.14 6.1 868 0.00 0.00 0.00 0.00
08/20/19 2:27:24 PM 272 3.0 12.0 55 16 76.7 96.0 29.887 20.14 6.1 867 0.00 0.00 0.00 0.00
08/20/19 2:28:19 PM 297 2.0 12.0 55 16 76.7 96.0 29.888 20.14 6.1 867 0.00 0.00 0.00 0.00
08/20/19 2:29:32 PM 192 8.0 12.0 55 16 76.8 96.0 29.886 20.14 6.0 863 0.00 0.00 0.00 0.00
08/20/19 2:30:20 PM 261 2.0 12.0 55 18 76.8 96.0 29.886 20.14 6.0 861 0.00 0.00 0.00 0.00
08/20/19 2:31:33 PM 217 6.0 12.0 55 18 76.8 96.2 29.884 20.14 6.0 860 0.00 0.00 0.00 0.00
08/20/19 2:32:25 PM 219 8.0 12.0 55 16 76.8 96.3 29.884 20.14 6.0 861 0.00 0.00 0.00 0.00
08/20/19 2:33:22 PM 203 7.0 12.0 55 18 76.8 96.4 29.886 20.14 5.9 861 0.00 0.00 0.00 0.00
08/20/19 2:34:35 PM 213 4.0 12.0 55 15 76.8 96.4 29.886 20.14 5.9 858 0.00 0.00 0.00 0.00
08/20/19 2:35:30 PM 225 6.0 12.0 55 17 76.9 96.5 29.886 20.14 5.8 854 0.00 0.00 0.00 0.00
08/20/19 2:36:18 PM 227 6.0 12.0 55 17 76.9 96.5 29.886 20.14 5.8 851 0.00 0.00 0.00 0.00
08/20/19 2:37:31 PM 255 5.0 12.0 55 16 76.9 96.4 29.886 20.14 5.8 849 0.00 0.00 0.00 0.00
08/20/19 2:38:23 PM 286 3.0 12.0 55 15 76.9 96.4 29.886 20.14 5.8 847 0.00 0.00 0.00 0.00
08/20/19 2:39:35 PM 288 4.0 12.0 55 16 76.9 96.5 29.885 20.14 5.7 842 0.00 0.00 0.00 0.00
08/20/19 2:40:30 PM 298 2.0 12.0 55 15 76.9 96.5 29.882 20.14 5.7 842 0.00 0.00 0.00 0.00
08/20/19 2:41:18 PM 290 2.0 12.0 55 15 76.9 96.5 29.882 20.14 5.7 840 0.00 0.00 0.00 0.00
08/20/19 2:42:31 PM 236 7.0 12.0 55 16 76.9 96.6 29.880 20.14 5.7 838 0.00 0.00 0.00 0.00
08/20/19 2:43:23 PM 226 4.0 12.0 55 16 76.9 96.6 29.880 20.14 5.6 837 0.00 0.00 0.00 0.00
08/20/19 2:44:36 PM 202 5.0 12.0 55 17 76.9 96.6 29.881 20.14 5.6 833 0.00 0.00 0.00 0.00
08/20/19 2:45:30 PM 211 5.0 12.0 55 16 76.9 96.7 29.879 20.14 5.5 833 0.00 0.00 0.00 0.00
08/20/19 2:46:22 PM 215 6.0 12.0 55 16 76.9 96.7 29.879 20.14 5.5 831 0.00 0.00 0.00 0.00
08/20/19 2:47:29 PM 221 6.0 12.0 55 16 77.0 96.7 29.879 20.14 5.5 830 0.00 0.00 0.00 0.00
08/20/19 2:48:24 PM 208 8.0 12.0 55 16 77.0 96.8 29.879 20.14 5.4 824 0.00 0.00 0.00 0.00
08/20/19 2:49:37 PM 211 9.0 12.0 55 16 77.0 96.8 29.878 20.14 5.4 824 0.00 0.00 0.00 0.00
08/20/19 2:50:29 PM 215 5.0 12.0 55 15 77.0 96.7 29.878 20.14 5.4 824 0.00 0.00 0.00 0.00
08/20/19 2:51:21 PM 213 3.0 12.0 55 15 77.0 96.7 29.878 20.14 5.4 824 0.00 0.00 0.00 0.00
08/20/19 2:52:31 PM 223 7.0 12.0 55 16 77.0 96.7 29.877 20.14 5.3 819 0.00 0.00 0.00 0.00
08/20/19 2:53:23 PM 242 6.0 12.0 55 17 77.0 96.7 29.877 20.14 5.3 817 0.00 0.00 0.00 0.00
08/20/19 2:54:35 PM 205 5.0 12.0 55 17 77.1 96.7 29.876 20.14 5.2 812 0.00 0.00 0.00 0.00
08/20/19 2:55:30 PM 197 4.0 12.0 55 17 77.0 96.6 29.876 20.14 5.2 812 0.00 0.00 0.00 0.00
08/20/19 2:56:22 PM 159 5.0 12.0 55 17 77.0 96.6 29.876 20.14 5.2 809 0.00 0.00 0.00 0.00
08/20/19 2:57:30 PM 136 7.0 12.0 55 17 77.0 96.6 29.875 20.14 5.1 803 0.00 0.00 0.00 0.00
08/20/19 2:58:24 PM 216 4.0 12.0 55 17 77.0 96.5 29.875 20.14 5.1 803 0.00 0.00 0.00 0.00
08/20/19 2:59:37 PM 207 5.0 12.0 55 17 77.1 96.5 29.874 20.14 5.1 803 0.00 0.00 0.00 0.00
08/20/19 3:00:29 PM 202 7.0 12.0 55 18 77.2 96.6 29.873 20.14 5.0 800 0.00 0.00 0.00 0.00
08/20/19 3:01:21 PM 221 6.0 12.0 55 18 77.2 96.6 29.873 20.14 5.0 796 0.00 0.00 0.00 0.00
08/20/19 3:02:35 PM 211 6.0 12.0 55 19 77.2 96.6 29.874 20.14 5.0 796 0.00 0.00 0.00 0.00
08/20/19 3:03:23 PM 198 4.0 12.0 55 17 77.2 96.7 29.874 20.14 4.9 793 0.00 0.00 0.00 0.00
08/20/19 3:04:15 PM 240 1.0 12.0 55 18 77.2 96.7 29.875 20.14 4.9 791 0.00 0.00 0.00 0.00
08/20/19 3:05:31 PM 293 8.0 12.0 55 17 77.2 96.7 29.874 20.14 4.9 788 0.00 0.00 0.00 0.00
08/20/19 3:06:23 PM 306 7.0 12.0 55 17 77.2 96.6 29.874 20.14 4.9 788 0.00 0.00 0.00 0.00
08/20/19 3:07:37 PM 311 4.0 12.0 55 17 77.2 96.4 29.874 20.14 4.8 786 0.00 0.00 0.00 0.00
08/20/19 3:08:22 PM 300 2.0 12.0 55 17 77.2 96.2 29.874 20.14 4.8 784 0.00 0.00 0.00 0.00
08/20/19 3:09:17 PM 233 7.0 12.0 55 19 77.3 96.2 29.874 20.14 4.8 782 0.00 0.00 0.00 0.00
08/20/19 3:10:31 PM 232 2.0 12.0 55 18 77.3 96.1 29.874 20.14 4.8 782 0.00 0.00 0.00 0.00
08/20/19 3:11:22 PM 259 4.0 12.0 55 18 77.3 96.1 29.874 20.14 4.7 775 0.00 0.00 0.00 0.00
08/20/19 3:12:36 PM 306 4.0 12.0 55 18 77.3 96.2 29.870 20.14 4.7 773 0.00 0.00 0.00 0.00
08/20/19 3:13:27 PM 261 4.0 12.0 55 18 77.3 96.2 29.873 20.14 4.7 772 0.00 0.00 0.00 0.00
08/20/19 3:14:16 PM 267 3.0 12.0 55 18 77.3 96.2 29.873 20.14 4.6 766 0.00 0.00 0.00 0.00
08/20/19 3:15:33 PM 252 3.0 12.0 55 18 77.4 96.3 29.870 20.14 4.5 758 0.00 0.00 0.00 0.00
08/20/19 3:16:21 PM 267 2.0 12.0 55 18 77.4 96.3 29.870 20.14 4.5 756 0.00 0.00 0.00 0.00
08/20/19 3:17:35 PM 237 0.0 12.0 55 18 77.4 96.4 29.868 20.14 4.4 752 0.00 0.00 0.00 0.00
08/20/19 3:18:27 PM 237 2.0 12.0 55 18 77.4 96.4 29.869 20.14 4.4 752 0.00 0.00 0.00 0.00
08/20/19 3:19:37 PM 239 3.0 12.0 55 18 77.4 96.5 29.869 20.14 4.4 752 0.00 0.00 0.00 0.00
08/20/19 3:20:29 PM 247 2.0 12.0 55 18 77.4 96.5 29.868 20.14 4.4 747 0.00 0.00 0.00 0.00
08/20/19 3:21:21 PM 240 2.0 12.0 55 18 77.4 96.6 29.868 20.14 4.3 744 0.00 0.00 0.00 0.00
08/20/19 3:22:34 PM 243 4.0 12.0 55 21 77.5 96.8 29.867 20.14 4.3 744 0.00 0.00 0.00 0.00
08/20/19 3:23:26 PM 215 7.0 12.0 55 19 77.5 96.9 29.868 20.14 4.3 742 0.00 0.00 0.00 0.00
08/20/19 3:24:21 PM 239 4.0 12.0 55 19 77.5 97.0 29.868 20.14 4.3 740 0.00 0.00 0.00 0.00
08/20/19 3:25:31 PM 239 5.0 12.0 55 20 77.4 97.1 29.866 20.14 4.3 737 0.00 0.00 0.00 0.00
08/20/19 3:26:20 PM 233 3.0 12.0 55 19 77.4 97.1 29.866 20.14 4.2 735 0.00 0.00 0.00 0.00
08/20/19 3:27:34 PM 202 7.0 12.0 55 19 77.5 97.1 29.864 20.14 4.1 729 0.00 0.00 0.00 0.00
08/20/19 3:28:29 PM 211 5.0 12.0 55 19 77.4 97.1 29.863 20.14 4.1 729 0.00 0.00 0.00 0.00
08/20/19 3:29:21 PM 194 7.0 12.0 55 18 77.4 97.1 29.863 20.14 4.1 728 0.00 0.00 0.00 0.00
08/20/19 3:30:28 PM 211 5.0 12.0 55 18 77.5 97.0 29.863 20.14 4.0 724 0.00 0.00 0.00 0.00
08/20/19 3:31:23 PM 213 8.0 12.0 55 19 77.5 96.9 29.863 20.14 4.0 724 0.00 0.00 0.00 0.00
08/20/19 3:32:36 PM 195 7.0 12.0 55 19 77.4 96.8 29.865 20.14 4.0 721 0.00 0.00 0.00 0.00
08/20/19 3:33:28 PM 214 4.0 12.0 55 19 77.5 96.8 29.864 20.14 4.0 719 0.00 0.00 0.00 0.00
08/20/19 3:34:20 PM 239 4.0 12.0 55 20 77.5 96.7 29.864 20.14 3.9 717 0.00 0.00 0.00 0.00
08/20/19 3:35:30 PM 254 4.0 12.0 55 19 77.5 96.7 29.864 20.14 3.9 717 0.00 0.00 0.00 0.00
08/20/19 3:36:22 PM 232 3.0 12.0 55 19 77.5 96.7 29.864 20.14 3.9 710 0.00 0.00 0.00 0.00
08/20/19 3:37:35 PM 267 7.0 12.0 55 20 77.4 96.7 29.863 20.14 3.9 710 0.00 0.00 0.00 0.00
08/20/19 3:38:30 PM 221 5.0 12.0 55 19 77.5 96.7 29.862 20.14 3.8 705 0.00 0.00 0.00 0.00
08/20/19 3:39:22 PM 216 7.0 12.0 55 20 77.5 96.7 29.862 20.14 3.8 700 0.00 0.00 0.00 0.00
08/20/19 3:40:35 PM 234 2.0 12.0 55 21 77.5 96.8 29.865 20.14 3.8 693 0.00 0.00 0.00 0.00
08/20/19 3:41:24 PM 254 11.0 12.0 55 21 77.5 96.9 29.865 20.14 3.7 693 0.00 0.00 0.00 0.00
08/20/19 3:42:35 PM 238 5.0 12.0 55 20 77.5 96.9 29.864 20.14 3.7 689 0.00 0.00 0.00 0.00
08/20/19 3:43:30 PM 248 5.0 12.0 55 20 77.4 96.9 29.862 20.14 3.7 686 0.00 0.00 0.00 0.00
08/20/19 3:44:22 PM 236 3.0 12.0 55 21 77.4 96.9 29.862 20.14 3.6 684 0.00 0.00 0.00 0.00
08/20/19 3:45:35 PM 230 8.0 12.0 55 21 77.5 96.9 29.861 20.14 3.6 682 0.00 0.00 0.00 0.00
08/20/19 3:46:24 PM 218 7.0 12.0 55 19 77.5 96.8 29.861 20.14 3.6 680 0.00 0.00 0.00 0.00
08/20/19 3:47:16 PM 192 7.0 12.0 55 20 77.5 96.9 29.862 20.14 3.6 680 0.00 0.00 0.00 0.00
08/20/19 3:48:29 PM 173 6.0 12.0 55 19 77.4 96.8 29.862 20.14 3.5 679 0.00 0.00 0.00 0.00
08/20/19 3:49:24 PM 171 5.0 12.0 55 19 77.4 96.7 29.862 20.14 3.5 677 0.00 0.00 0.00 0.00
08/20/19 3:50:34 PM 200 9.0 12.0 55 20 77.5 96.5 29.862 20.14 3.5 673 0.00 0.00 0.00 0.00
08/20/19 3:51:29 PM 201 9.0 12.0 55 20 77.5 96.4 29.860 20.14 3.5 670 0.00 0.00 0.00 0.00
08/20/19 3:52:18 PM 236 9.0 15.0 55 20 77.5 96.3 29.860 20.14 3.4 670 0.00 0.00 0.00 0.00
08/20/19 3:53:31 PM 217 8.0 15.0 55 20 77.5 96.2 29.859 20.14 3.4 668 0.00 0.00 0.00 0.00
08/20/19 3:54:23 PM 239 6.0 15.0 55 20 77.5 96.2 29.859 20.14 3.3 664 0.00 0.00 0.00 0.00
08/20/19 3:55:37 PM 269 7.0 15.0 55 21 77.5 96.0 29.860 20.14 3.3 659 0.00 0.00 0.00 0.00
08/20/19 3:56:29 PM 259 4.0 15.0 55 20 77.5 96.0 29.859 20.14 3.3 657 0.00 0.00 0.00 0.00
08/20/19 3:57:18 PM 216 1.0 15.0 55 20 77.5 95.9 29.859 20.14 3.3 657 0.00 0.00 0.00 0.00
08/20/19 3:58:31 PM 247 1.0 15.0 55 21 77.5 95.8 29.859 20.14 3.3 652 0.00 0.00 0.00 0.00
08/20/19 3:59:23 PM 247 1.0 15.0 55 21 77.5 95.9 29.859 20.14 3.2 649 0.00 0.00 0.00 0.00
08/20/19 4:00:37 PM 238 3.0 15.0 55 20 77.5 95.9 29.859 20.14 3.1 649 0.00 0.00 0.00 0.00
08/20/19 4:01:35 PM 237 1.0 15.0 55 20 77.6 96.0 29.858 20.14 3.1 643 0.00 0.00 0.00 0.00
08/20/19 4:02:27 PM 221 4.0 15.0 55 20 77.5 96.0 29.861 20.14 3.1 640 0.00 0.00 0.00 0.00
08/20/19 4:03:37 PM 209 5.0 15.0 55 20 77.6 96.0 29.861 20.14 3.1 638 0.00 0.00 0.00 0.00
08/20/19 4:04:29 PM 271 7.0 15.0 55 20 77.6 96.1 29.859 20.14 3.0 635 0.00 0.00 0.00 0.00
08/20/19 4:05:24 PM 223 3.0 15.0 55 20 77.6 96.2 29.859 20.14 3.0 631 0.00 0.00 0.00 0.00
08/20/19 4:06:34 PM 249 5.0 15.0 55 21 77.6 96.3 29.859 20.14 3.0 628 0.00 0.00 0.00 0.00
08/20/19 4:07:29 PM 209 7.0 15.0 55 21 77.6 96.3 29.862 20.14 3.0 626 0.00 0.00 0.00 0.00
08/20/19 4:08:15 PM 227 8.0 15.0 55 20 77.6 96.3 29.862 20.14 2.9 622 0.00 0.00 0.00 0.00
08/20/19 4:09:29 PM 198 9.0 15.0 55 20 77.6 96.2 29.857 20.14 2.9 621 0.00 0.00 0.00 0.00
08/20/19 4:10:24 PM 216 8.0 15.0 55 20 77.6 96.2 29.857 20.14 2.9 617 0.00 0.00 0.00 0.00
08/20/19 4:11:34 PM 230 3.0 15.0 55 20 77.7 96.2 29.859 20.14 2.8 612 0.00 0.00 0.00 0.00
08/20/19 4:12:29 PM 238 5.0 15.0 55 20 77.6 96.1 29.859 20.14 2.8 610 0.00 0.00 0.00 0.00
08/20/19 4:13:21 PM 199 2.0 15.0 55 21 77.6 96.1 29.859 20.14 2.8 605 0.00 0.00 0.00 0.00
08/20/19 4:14:29 PM 213 5.0 15.0 55 20 77.7 96.0 29.859 20.14 2.7 603 0.00 0.00 0.00 0.00
08/20/19 4:15:24 PM 225 8.0 15.0 55 21 77.7 96.0 29.859 20.14 2.7 603 0.00 0.00 0.00 0.00
08/20/19 4:16:37 PM 238 6.0 15.0 55 21 77.7 96.0 29.859 20.14 2.7 603 0.00 0.00 0.00 0.00
08/20/19 4:17:29 PM 232 1.0 15.0 55 21 77.7 96.0 29.860 20.14 2.6 594 0.00 0.00 0.00 0.00
08/20/19 4:18:21 PM 198 5.0 15.0 55 22 77.7 96.0 29.860 20.14 2.6 591 0.00 0.00 0.00 0.00
08/20/19 4:19:32 PM 294 3.0 15.0 55 21 77.8 96.0 29.861 20.14 2.6 587 0.00 0.00 0.00 0.00
08/20/19 4:20:24 PM 223 4.0 15.0 55 22 77.8 96.0 29.861 20.14 2.6 584 0.00 0.00 0.00 0.00
08/20/19 4:21:37 PM 225 5.0 15.0 55 22 77.7 96.0 29.863 20.14 2.5 582 0.00 0.00 0.00 0.00
08/20/19 4:22:29 PM 238 3.0 15.0 55 21 77.7 96.1 29.862 20.14 2.5 578 0.00 0.00 0.00 0.00
08/20/19 4:23:21 PM 234 2.0 15.0 55 21 77.7 96.1 29.862 20.14 2.5 577 0.00 0.00 0.00 0.00
08/20/19 4:24:31 PM 235 10.0 15.0 55 22 77.7 96.1 29.861 20.14 2.5 575 0.00 0.00 0.00 0.00
08/20/19 4:25:26 PM 209 5.0 15.0 55 21 77.7 96.1 29.861 20.14 2.4 575 0.00 0.00 0.00 0.00
08/20/19 4:26:18 PM 265 4.0 15.0 55 21 77.7 96.1 29.861 20.14 2.4 575 0.00 0.00 0.00 0.00
08/20/19 4:27:32 PM 205 4.0 15.0 55 21 77.7 96.1 29.861 20.14 2.4 563 0.00 0.00 0.00 0.00
08/20/19 4:28:24 PM 223 8.0 15.0 55 21 77.7 96.1 29.861 20.14 2.4 559 0.00 0.00 0.00 0.00
08/20/19 4:29:37 PM 203 6.0 15.0 55 20 77.7 96.1 29.859 20.14 2.3 555 0.00 0.00 0.00 0.00
08/20/19 4:30:23 PM 231 5.0 15.0 55 20 77.7 96.0 29.859 20.14 2.3 554 0.00 0.00 0.00 0.00
08/20/19 4:31:18 PM 228 2.0 15.0 55 20 77.7 96.0 29.861 20.14 2.3 550 0.00 0.00 0.00 0.00
08/20/19 4:32:29 PM 204 6.0 15.0 55 21 77.6 96.0 29.859 20.14 2.2 547 0.00 0.00 0.00 0.00
08/20/19 4:33:25 PM 248 3.0 15.0 55 21 77.6 96.0 29.859 20.14 2.2 545 0.00 0.00 0.00 0.00
08/20/19 4:34:35 PM 265 6.0 15.0 55 22 77.7 96.0 29.859 20.14 2.2 543 0.00 0.00 0.00 0.00
08/20/19 4:35:27 PM 236 5.0 15.0 55 22 77.7 96.0 29.859 20.14 2.2 540 0.00 0.00 0.00 0.00
08/20/19 4:36:19 PM 246 3.0 15.0 55 21 77.7 96.0 29.859 20.14 2.1 536 0.00 0.00 0.00 0.00
08/20/19 4:37:33 PM 270 2.0 15.0 55 20 77.7 96.0 29.861 20.14 2.1 533 0.00 0.00 0.00 0.00
08/20/19 4:38:25 PM 258 8.0 15.0 55 23 77.7 96.1 29.861 20.14 2.1 527 0.00 0.00 0.00 0.00
08/20/19 4:39:17 PM 267 6.0 15.0 55 21 77.7 96.1 29.860 20.14 2.1 526 0.00 0.00 0.00 0.00
08/20/19 4:40:30 PM 278 3.0 15.0 55 21 77.7 96.0 29.859 20.14 2.0 520 0.00 0.00 0.00 0.00
08/20/19 4:41:19 PM 217 10.0 15.0 55 21 77.7 96.0 29.859 20.14 2.0 520 0.00 0.00 0.00 0.00
08/20/19 4:42:33 PM 216 5.0 15.0 55 21 77.7 95.9 29.861 20.14 2.0 515 0.00 0.00 0.00 0.00
08/20/19 4:43:25 PM 225 7.0 15.0 55 21 77.7 95.9 29.861 20.14 2.0 512 0.00 0.00 0.00 0.00
08/20/19 4:44:17 PM 242 5.0 15.0 55 21 77.7 95.8 29.860 20.14 2.0 508 0.00 0.00 0.00 0.00
08/20/19 4:45:30 PM 245 3.0 15.0 55 21 77.7 95.8 29.859 20.14 1.9 504 0.00 0.00 0.00 0.00
08/20/19 4:46:19 PM 245 1.0 15.0 55 21 77.7 95.7 29.859 20.14 1.9 501 0.00 0.00 0.00 0.00
08/20/19 4:47:33 PM 224 3.0 15.0 55 20 77.7 95.7 29.858 20.14 1.9 499 0.00 0.00 0.00 0.00
08/20/19 4:48:25 PM 223 6.0 15.0 55 21 77.7 95.7 29.858 20.14 1.8 497 0.00 0.00 0.00 0.00
08/20/19 4:49:17 PM 249 7.0 15.0 55 21 77.7 95.7 29.859 20.14 1.8 494 0.00 0.00 0.00 0.00
08/20/19 4:50:30 PM 238 3.0 15.0 55 21 77.8 95.7 29.859 20.14 1.8 490 0.00 0.00 0.00 0.00
08/20/19 4:51:26 PM 241 5.0 15.0 55 22 77.8 95.7 29.859 20.14 1.8 487 0.00 0.00 0.00 0.00
08/20/19 4:52:33 PM 244 7.0 15.0 55 21 77.8 95.7 29.857 20.14 1.8 485 0.00 0.00 0.00 0.00
08/20/19 4:53:25 PM 238 2.0 15.0 55 21 77.8 95.7 29.857 20.14 1.7 483 0.00 0.00 0.00 0.00
08/20/19 4:54:20 PM 304 4.0 15.0 55 21 77.8 95.7 29.858 20.14 1.7 480 0.00 0.00 0.00 0.00
08/20/19 4:55:33 PM 249 5.0 15.0 55 21 77.8 95.7 29.859 20.14 1.7 475 0.00 0.00 0.00 0.00
08/20/19 4:56:25 PM 267 4.0 15.0 55 20 77.8 95.7 29.859 20.14 1.7 475 0.00 0.00 0.00 0.00
08/20/19 4:57:35 PM 259 2.0 15.0 55 20 77.8 95.7 29.858 20.14 1.6 469 0.00 0.00 0.00 0.00
08/20/19 4:58:27 PM 256 2.0 15.0 55 20 77.8 95.7 29.858 20.14 1.6 466 0.00 0.00 0.00 0.00
08/20/19 4:59:20 PM 215 7.0 15.0 55 20 77.8 95.8 29.858 20.14 1.6 462 0.00 0.00 0.00 0.00
08/20/19 5:00:33 PM 244 4.0 15.0 55 20 77.8 95.8 29.857 20.14 1.6 457 0.00 0.00 0.00 0.00
08/20/19 5:01:25 PM 216 4.0 15.0 55 19 77.8 95.8 29.857 20.14 1.5 454 0.00 0.00 0.00 0.00
08/20/19 5:02:17 PM 226 9.0 15.0 55 20 77.8 95.8 29.859 20.14 1.5 452 0.00 0.00 0.00 0.00
08/20/19 5:03:27 PM 221 7.0 15.0 55 20 77.8 95.8 29.859 20.14 1.5 450 0.00 0.00 0.00 0.00
08/20/19 5:04:19 PM 259 6.0 15.0 55 21 77.8 95.8 29.859 20.14 1.5 446 0.00 0.00 0.00 0.00
08/20/19 5:05:36 PM 218 9.0 16.0 55 21 77.8 95.8 29.856 20.14 1.5 443 0.00 0.00 0.00 0.00
08/20/19 5:06:25 PM 228 7.0 17.0 55 21 77.8 95.6 29.856 20.14 1.4 439 0.00 0.00 0.00 0.00
08/20/19 5:07:17 PM 233 6.0 17.0 55 21 77.8 95.5 29.858 20.14 1.4 436 0.00 0.00 0.00 0.00
08/20/19 5:08:27 PM 250 8.0 17.0 55 21 77.8 95.4 29.856 20.14 1.4 432 0.00 0.00 0.00 0.00
08/20/19 5:09:19 PM 288 7.0 17.0 55 21 77.8 95.3 29.855 20.14 1.4 431 0.00 0.00 0.00 0.00
08/20/19 5:10:33 PM 250 4.0 17.0 55 21 77.9 95.2 29.855 20.14 1.3 424 0.00 0.00 0.00 0.00
08/20/19 5:11:25 PM 269 2.0 17.0 55 20 77.9 95.2 29.855 20.14 1.3 424 0.00 0.00 0.00 0.00
08/20/19 5:12:17 PM 281 4.0 17.0 55 21 77.9 95.2 29.853 20.14 1.3 420 0.00 0.00 0.00 0.00
08/20/19 5:13:27 PM 248 4.0 17.0 55 21 77.9 95.1 29.856 20.14 1.3 413 0.00 0.00 0.00 0.00
08/20/19 5:14:20 PM 232 5.0 17.0 55 21 77.9 95.1 29.856 20.14 1.3 410 0.00 0.00 0.00 0.00
08/20/19 5:15:33 PM 217 7.0 17.0 55 21 77.8 95.1 29.853 20.14 1.2 406 0.00 0.00 0.00 0.00
08/20/19 5:16:26 PM 290 4.0 17.0 55 20 77.8 95.1 29.853 20.14 1.2 403 0.00 0.00 0.00 0.00
08/20/19 5:17:18 PM 270 4.0 17.0 55 21 77.8 95.1 29.852 20.14 1.2 399 0.00 0.00 0.00 0.00
08/20/19 5:18:31 PM 252 1.0 17.0 55 21 77.9 95.1 29.852 20.14 1.2 396 0.00 0.00 0.00 0.00
08/20/19 5:19:20 PM 285 3.0 17.0 55 20 77.9 95.1 29.852 20.14 1.2 396 0.00 0.00 0.00 0.00
08/20/19 5:20:34 PM 273 4.0 17.0 55 21 77.9 95.1 29.852 20.14 1.2 390 0.00 0.00 0.00 0.00
08/20/19 5:21:26 PM 311 8.0 17.0 55 21 77.9 95.0 29.852 20.14 1.1 387 0.00 0.00 0.00 0.00
08/20/19 5:22:18 PM 299 2.0 17.0 55 21 77.9 95.0 29.848 20.14 1.1 385 0.00 0.00 0.00 0.00
08/20/19 5:23:31 PM 219 7.0 17.0 55 22 77.8 95.0 29.850 20.14 1.1 385 0.00 0.00 0.00 0.00
08/20/19 5:24:21 PM 211 6.0 17.0 55 21 77.8 95.0 29.850 20.14 1.1 385 0.00 0.00 0.00 0.00
08/20/19 5:25:34 PM 219 3.0 17.0 55 21 77.9 95.0 29.850 20.14 1.1 373 0.00 0.00 0.00 0.00
08/20/19 5:26:26 PM 271 3.0 17.0 55 21 77.9 94.9 29.850 20.14 1.0 373 0.00 0.00 0.00 0.00
08/20/19 5:27:18 PM 268 6.0 17.0 55 21 77.9 94.9 29.850 20.14 1.0 367 0.00 0.00 0.00 0.00
08/20/19 5:28:32 PM 248 3.0 17.0 55 21 77.9 94.9 29.852 20.14 1.0 364 0.00 0.00 0.00 0.00
08/20/19 5:29:24 PM 242 6.0 17.0 55 21 77.9 94.9 29.852 20.14 1.0 362 0.00 0.00 0.00 0.00
08/20/19 5:30:31 PM 233 7.0 17.0 55 20 77.8 94.8 29.848 20.14 1.0 355 0.00 0.00 0.00 0.00
08/20/19 5:31:27 PM 240 3.0 17.0 55 20 77.8 94.8 29.848 20.14 0.9 352 0.00 0.00 0.00 0.00
08/20/19 5:32:19 PM 244 2.0 17.0 55 21 77.8 94.8 29.851 20.14 0.9 348 0.00 0.00 0.00 0.00
08/20/19 5:33:32 PM 251 4.0 17.0 55 20 77.8 94.7 29.852 20.14 0.9 345 0.00 0.00 0.00 0.00
08/20/19 5:34:24 PM 257 3.0 17.0 55 20 77.8 94.7 29.852 20.14 0.9 343 0.00 0.00 0.00 0.00
08/20/19 5:35:35 PM 246 11.0 17.0 55 20 77.8 94.7 29.850 20.14 0.9 339 0.00 0.00 0.00 0.00
08/20/19 5:36:27 PM 290 9.0 17.0 55 21 77.9 94.7 29.849 20.14 0.9 338 0.00 0.00 0.00 0.00
08/20/19 5:37:19 PM 254 4.0 17.0 55 21 77.9 94.6 29.849 20.14 0.9 334 0.00 0.00 0.00 0.00
08/20/19 5:38:32 PM 238 5.0 17.0 55 20 77.8 94.5 29.851 20.14 0.8 330 0.00 0.00 0.00 0.00
08/20/19 5:39:25 PM 239 2.0 17.0 55 21 77.8 94.5 29.851 20.14 0.8 325 0.00 0.00 0.00 0.00
08/20/19 5:40:20 PM 221 4.0 17.0 55 21 77.8 94.4 29.848 20.14 0.8 322 0.00 0.00 0.00 0.00
08/20/19 5:41:27 PM 224 3.0 17.0 55 20 77.8 94.4 29.852 20.14 0.8 320 0.00 0.00 0.00 0.00
08/20/19 5:42:20 PM 284 4.0 17.0 55 21 77.8 94.4 29.852 20.14 0.8 316 0.00 0.00 0.00 0.00
08/20/19 5:43:33 PM 258 6.0 17.0 55 20 77.8 94.4 29.849 20.14 0.7 309 0.00 0.00 0.00 0.00
08/20/19 5:44:25 PM 241 2.0 17.0 55 21 77.8 94.4 29.849 20.14 0.7 309 0.00 0.00 0.00 0.00
08/20/19 5:45:21 PM 239 6.0 17.0 55 20 77.8 94.3 29.850 20.14 0.7 309 0.00 0.00 0.00 0.00
08/20/19 5:46:28 PM 224 5.0 17.0 55 20 77.9 94.4 29.851 20.14 0.7 299 0.00 0.00 0.00 0.00
08/20/19 5:47:20 PM 269 8.0 17.0 55 20 77.9 94.3 29.851 20.14 0.7 295 0.00 0.00 0.00 0.00
08/20/19 5:48:34 PM 263 6.0 17.0 55 20 77.8 94.3 29.847 20.14 0.7 292 0.00 0.00 0.00 0.00
08/20/19 5:49:26 PM 273 4.0 17.0 55 20 77.9 94.2 29.847 20.14 0.7 288 0.00 0.00 0.00 0.00

University Police wind advisory reference

For campus closure information please call the campus Emergency Hotline at (909) 537-5999

© All rights reserved. Unauthorized duplication or distribution is prohibited

Never base important decisions on this or any weather information obtained from the Internet

California State University, San Bernardino
5500 University Parkway, San Bernardino, CA. 92407
Phone: (909) 537-5108, Email: Weather Webmaster
Last Updated: